| time (UTC) | temp C | wind direction | speed KPH | gust KPH | rain 1hr cm | rain 24hr cm | rain mn cm | humidity % | barometer mb |
| 20260506205711 | 8 | 172 | 16.1 | 35.4 | 0.00 | 0.00 | 0.00 | 75 | 849.7 |
| 20260506205211 | 8 | 174 | 16.1 | 25.7 | 0.00 | 0.00 | 0.00 | 75 | 849.7 |
| 20260506205112 | 8 | 172 | 17.7 | 33.8 | 0.00 | 0.00 | 0.00 | 75 | 849.7 |
| 20260506204912 | 8 | 173 | 16.1 | 33.8 | 0.00 | 0.00 | 0.00 | 75 | 849.6 |
| 20260506204708 | 8 | 168 | 16.1 | 24.1 | 0.00 | 0.00 | 0.00 | 75 | 849.6 |
| 20260506204509 | 8 | 161 | 14.5 | 24.1 | 0.00 | 0.00 | 0.00 | 75 | 849.6 |
| 20260506204309 | 8 | 176 | 16.1 | 24.1 | 0.00 | 0.00 | 0.00 | 75 | 849.7 |
| 20260506204208 | 8 | 176 | 14.5 | 24.1 | 0.00 | 0.00 | 0.00 | 75 | 849.7 |
| 20260506204109 | 8 | 174 | 14.5 | 20.9 | 0.00 | 0.00 | 0.00 | 75 | 849.7 |
| 20260506203909 | 8 | 173 | 14.5 | 25.7 | 0.00 | 0.00 | 0.00 | 75 | 849.8 |
| 20260506203705 | 8 | 176 | 16.1 | 25.7 | 0.00 | 0.00 | 0.00 | 75 | 849.8 |
| 20260506203506 | 8 | 180 | 12.9 | 20.9 | 0.00 | 0.00 | 0.00 | 74 | 849.8 |
| 20260506203306 | 8 | 165 | 16.1 | 25.7 | 0.00 | 0.00 | 0.00 | 74 | 849.8 |
| 20260506203205 | 8 | 159 | 16.1 | 29.0 | 0.00 | 0.00 | 0.00 | 74 | 849.8 |
| 20260506203108 | 8 | 158 | 16.1 | 29.0 | 0.00 | 0.00 | 0.00 | 74 | 849.9 |
| 20260506202906 | 8 | 166 | 12.9 | 19.3 | 0.00 | 0.00 | 0.00 | 74 | 849.8 |
| 20260506202702 | 8 | 169 | 16.1 | 30.6 | 0.00 | 0.00 | 0.00 | 74 | 849.8 |
| 20260506202503 | 8 | 167 | 14.5 | 22.5 | 0.00 | 0.00 | 0.00 | 74 | 849.8 |
| 20260506202203 | 8 | 169 | 16.1 | 25.7 | 0.00 | 0.00 | 0.00 | 74 | 849.7 |
| 20260506202102 | 8 | 176 | 14.5 | 25.7 | 0.00 | 0.00 | 0.00 | 74 | 849.7 |
| 20260506201903 | 8 | 173 | 16.1 | 25.7 | 0.00 | 0.00 | 0.00 | 74 | 849.7 |
| 20260506201659 | 8 | 167 | 17.7 | 45.1 | 0.00 | 0.00 | 0.00 | 74 | 849.7 |
| 20260506201501 | 8 | 160 | 17.7 | 45.1 | 0.00 | 0.00 | 0.00 | 74 | 849.7 |
| 20260506201301 | 8 | 162 | 19.3 | 29.0 | 0.00 | 0.00 | 0.00 | 74 | 849.7 |
| 20260506201159 | 8 | 163 | 17.7 | 27.4 | 0.00 | 0.00 | 0.00 | 74 | 849.7 |
| 20260506201100 | 8 | 163 | 16.1 | 29.0 | 0.00 | 0.00 | 0.00 | 74 | 849.7 |
| 20260506200859 | 8 | 162 | 19.3 | 29.0 | 0.00 | 0.00 | 0.00 | 74 | 849.8 |
| 20260506200656 | 8 | 171 | 14.5 | 25.7 | 0.00 | 0.00 | 0.00 | 74 | 849.8 |
| 20260506200456 | 8 | 169 | 16.1 | 27.4 | 0.00 | 0.00 | 0.00 | 73 | 849.7 |
| 20260506200256 | 8 | 179 | 16.1 | 25.7 | 0.00 | 0.00 | 0.00 | 73 | 849.8 |
| 20260506200156 | 8 | 173 | 16.1 | 25.7 | 0.00 | 0.00 | 0.00 | 73 | 849.8 |
| 20260506200056 | 8 | 176 | 14.5 | 25.7 | 0.00 | 0.00 | 0.00 | 73 | 849.8 |
| 20260506195857 | 8 | 173 | 12.9 | 24.1 | 0.00 | 0.00 | 0.00 | 73 | 849.8 |
| 20260506195653 | 8 | 178 | 16.1 | 29.0 | 0.00 | 0.00 | 0.00 | 73 | 849.8 |
| 20260506195454 | 8 | 175 | 17.7 | 30.6 | 0.00 | 0.00 | 0.00 | 73 | 849.8 |
| 20260506195254 | 8 | 171 | 16.1 | 30.6 | 0.00 | 0.00 | 0.00 | 73 | 849.8 |
| 20260506195153 | 8 | 169 | 16.1 | 24.1 | 0.00 | 0.00 | 0.00 | 73 | 849.8 |
| 20260506195054 | 8 | 171 | 16.1 | 25.7 | 0.00 | 0.00 | 0.00 | 73 | 849.7 |
| 20260506194853 | 8 | 179 | 19.3 | 32.2 | 0.00 | 0.00 | 0.00 | 73 | 849.7 |
| 20260506194637 | 8 | 169 | 16.1 | 24.1 | 0.00 | 0.00 | 0.00 | 73 | 849.7 |
| 20260506194439 | 8 | 154 | 14.5 | 24.1 | 0.00 | 0.00 | 0.00 | 73 | 849.7 |
| 20260506194239 | 8 | 163 | 14.5 | 24.1 | 0.00 | 0.00 | 0.00 | 73 | 849.8 |
| 20260506194137 | 8 | 170 | 14.5 | 24.1 | 0.00 | 0.00 | 0.00 | 72 | 849.8 |
| 20260506194039 | 8 | 173 | 16.1 | 30.6 | 0.00 | 0.00 | 0.00 | 72 | 849.8 |
| 20260506193839 | 8 | 170 | 16.1 | 30.6 | 0.00 | 0.00 | 0.00 | 72 | 849.8 |
| 20260506193634 | 8 | 162 | 16.1 | 25.7 | 0.00 | 0.00 | 0.00 | 72 | 849.8 |
| 20260506193435 | 8 | 169 | 16.1 | 20.9 | 0.00 | 0.00 | 0.00 | 72 | 849.8 |
| 20260506193234 | 8 | 177 | 12.9 | 19.3 | 0.00 | 0.00 | 0.00 | 72 | 849.8 |
| 20260506193134 | 8 | 180 | 11.3 | 19.3 | 0.00 | 0.00 | 0.00 | 72 | 849.8 |
| 20260506193034 | 8 | 179 | 12.9 | 20.9 | 0.00 | 0.00 | 0.00 | 72 | 849.9 |
| 20260506192834 | 8 | 172 | 12.9 | 20.9 | 0.00 | 0.00 | 0.00 | 72 | 849.9 |
| 20260506192631 | 8 | 169 | 12.9 | 22.5 | 0.00 | 0.00 | 0.00 | 72 | 849.9 |
| 20260506192432 | 8 | 168 | 14.5 | 27.4 | 0.00 | 0.00 | 0.00 | 72 | 849.8 |
| 20260506192232 | 9 | 167 | 17.7 | 25.7 | 0.00 | 0.00 | 0.00 | 72 | 849.8 |
| 20260506192131 | 9 | 167 | 16.1 | 25.7 | 0.00 | 0.00 | 0.00 | 72 | 849.8 |
| 20260506192032 | 9 | 165 | 12.9 | 19.3 | 0.00 | 0.00 | 0.00 | 72 | 849.8 |
| 20260506191628 | 9 | 169 | 12.9 | 22.5 | 0.00 | 0.00 | 0.00 | 72 | 849.8 |
| 20260506191429 | 9 | 173 | 12.9 | 20.9 | 0.00 | 0.00 | 0.00 | 72 | 849.8 |
| 20260506191228 | 9 | 174 | 12.9 | 20.9 | 0.00 | 0.00 | 0.00 | 72 | 849.8 |
| 20260506191128 | 9 | 175 | 12.9 | 20.9 | 0.00 | 0.00 | 0.00 | 72 | 849.8 |
| 20260506191028 | 9 | 175 | 14.5 | 20.9 | 0.00 | 0.00 | 0.00 | 71 | 849.7 |
| 20260506190625 | 9 | 175 | 14.5 | 20.9 | 0.00 | 0.00 | 0.00 | 71 | 849.8 |
| 20260506190426 | 9 | 176 | 12.9 | 17.7 | 0.00 | 0.00 | 0.00 | 71 | 849.8 |
| 20260506190225 | 9 | 163 | 14.5 | 29.0 | 0.00 | 0.00 | 0.00 | 71 | 849.8 |
| 20260506190124 | 9 | 164 | 12.9 | 29.0 | 0.00 | 0.00 | 0.00 | 71 | 849.8 |
| 20260506190026 | 9 | 164 | 12.9 | 29.0 | 0.00 | 0.00 | 0.00 | 71 | 849.8 |
| 20260506185621 | 9 | 167 | 12.9 | 20.9 | 0.00 | 0.00 | 0.00 | 71 | 849.8 |
| 20260506185423 | 9 | 170 | 12.9 | 20.9 | 0.00 | 0.00 | 0.00 | 71 | 849.8 |
| 20260506185223 | 9 | 165 | 14.5 | 24.1 | 0.00 | 0.00 | 0.00 | 71 | 849.8 |
| 20260506185121 | 9 | 161 | 12.9 | 24.1 | 0.00 | 0.00 | 0.00 | 71 | 849.7 |
| 20260506185018 | 9 | 164 | 12.9 | 22.5 | 0.00 | 0.00 | 0.00 | 71 | 849.7 |
| 20260506184819 | 9 | 173 | 12.9 | 22.5 | 0.00 | 0.00 | 0.00 | 71 | 849.7 |
| 20260506184615 | 9 | 177 | 11.3 | 20.9 | 0.00 | 0.00 | 0.00 | 71 | 849.8 |
| 20260506184415 | 9 | 173 | 12.9 | 20.9 | 0.00 | 0.00 | 0.00 | 71 | 849.8 |
| 20260506184215 | 9 | 172 | 11.3 | 19.3 | 0.00 | 0.00 | 0.00 | 71 | 849.9 |
| 20260506184115 | 9 | 171 | 11.3 | 16.1 | 0.00 | 0.00 | 0.00 | 71 | 849.9 |
| 20260506184015 | 9 | 172 | 12.9 | 22.5 | 0.00 | 0.00 | 0.00 | 71 | 849.9 |
| 20260506183815 | 9 | 174 | 12.9 | 22.5 | 0.00 | 0.00 | 0.00 | 71 | 849.9 |
| 20260506183612 | 9 | 177 | 12.9 | 22.5 | 0.00 | 0.00 | 0.00 | 71 | 849.9 |
| 20260506183413 | 9 | 179 | 12.9 | 22.5 | 0.00 | 0.00 | 0.00 | 71 | 849.8 |
| 20260506183213 | 9 | 173 | 12.9 | 22.5 | 0.00 | 0.00 | 0.00 | 71 | 849.9 |
| 20260506183112 | 9 | 169 | 12.9 | 20.9 | 0.00 | 0.00 | 0.00 | 71 | 849.9 |
| 20260506183013 | 9 | 171 | 11.3 | 17.7 | 0.00 | 0.00 | 0.00 | 70 | 849.8 |
| 20260506182813 | 9 | 172 | 9.7 | 16.1 | 0.00 | 0.00 | 0.00 | 70 | 849.8 |
| 20260506182609 | 9 | 168 | 11.3 | 22.5 | 0.00 | 0.00 | 0.00 | 70 | 849.8 |
| 20260506182410 | 9 | 170 | 11.3 | 22.5 | 0.00 | 0.00 | 0.00 | 70 | 849.8 |
| 20260506182210 | 9 | 172 | 11.3 | 19.3 | 0.00 | 0.00 | 0.00 | 70 | 849.8 |
| 20260506182109 | 9 | 172 | 11.3 | 19.3 | 0.00 | 0.00 | 0.00 | 70 | 849.8 |
| 20260506182010 | 9 | 176 | 12.9 | 25.7 | 0.00 | 0.00 | 0.00 | 70 | 849.8 |
| 20260506181810 | 9 | 172 | 16.1 | 25.7 | 0.00 | 0.00 | 0.00 | 70 | 849.8 |
| 20260506181606 | 9 | 173 | 12.9 | 22.5 | 0.00 | 0.00 | 0.00 | 70 | 849.8 |
| 20260506181408 | 9 | 175 | 11.3 | 25.7 | 0.00 | 0.00 | 0.00 | 70 | 849.9 |
| 20260506181208 | 9 | 170 | 11.3 | 25.7 | 0.00 | 0.00 | 0.00 | 69 | 849.9 |
| 20260506181106 | 9 | 170 | 12.9 | 25.7 | 0.00 | 0.00 | 0.00 | 69 | 849.9 |
| 20260506181007 | 9 | 166 | 12.9 | 25.7 | 0.00 | 0.00 | 0.00 | 69 | 849.9 |
| 20260506180807 | 10 | 164 | 12.9 | 19.3 | 0.00 | 0.00 | 0.00 | 69 | 849.9 |
| 20260506180603 | 10 | 178 | 11.3 | 14.5 | 0.00 | 0.00 | 0.00 | 69 | 849.9 |
| 20260506180405 | 10 | 181 | 11.3 | 16.1 | 0.00 | 0.00 | 0.00 | 69 | 849.9 |
| 20260506180204 | 10 | 170 | 12.9 | 19.3 | 0.00 | 0.00 | 0.00 | 69 | 849.8 |
| 20260506180103 | 10 | 165 | 12.9 | 20.9 | 0.00 | 0.00 | 0.00 | 69 | 849.8 |
| 20260506175600 | 10 | 170 | 9.7 | 16.1 | 0.00 | 0.00 | 0.00 | 68 | 849.9 |
| 20260506175403 | 10 | 171 | 12.9 | 22.5 | 0.00 | 0.00 | 0.00 | 68 | 849.9 |
| 20260506175100 | 10 | 171 | 12.9 | 22.5 | 0.00 | 0.00 | 0.00 | 68 | 849.9 |
| 20260506175003 | 10 | 168 | 11.3 | 22.5 | 0.00 | 0.00 | 0.00 | 68 | 849.9 |
| 20260506174557 | 10 | 164 | 11.3 | 19.3 | 0.00 | 0.00 | 0.00 | 68 | 850.0 |
| 20260506174358 | 10 | 172 | 11.3 | 17.7 | 0.00 | 0.00 | 0.00 | 68 | 850.0 |
| 20260506174158 | 10 | 178 | 12.9 | 22.5 | 0.00 | 0.00 | 0.00 | 68 | 850.0 |
| 20260506174057 | 10 | 174 | 12.9 | 22.5 | 0.00 | 0.00 | 0.00 | 68 | 850.0 |
| 20260506173958 | 10 | 175 | 12.9 | 22.5 | 0.00 | 0.00 | 0.00 | 68 | 850.0 |
| 20260506173554 | 10 | 173 | 9.7 | 12.9 | 0.00 | 0.00 | 0.00 | 68 | 850.1 |
| 20260506173354 | 10 | 174 | 11.3 | 16.1 | 0.00 | 0.00 | 0.00 | 68 | 850.1 |
| 20260506173154 | 10 | 173 | 11.3 | 19.3 | 0.00 | 0.00 | 0.00 | 68 | 850.0 |
| 20260506173054 | 10 | 170 | 12.9 | 19.3 | 0.00 | 0.00 | 0.00 | 68 | 850.0 |
| 20260506172954 | 10 | 169 | 11.3 | 19.3 | 0.00 | 0.00 | 0.00 | 67 | 850.1 |
| 20260506172754 | 10 | 168 | 9.7 | 24.1 | 0.00 | 0.00 | 0.00 | 67 | 850.1 |
| 20260506172551 | 10 | 171 | 9.7 | 17.7 | 0.00 | 0.00 | 0.00 | 67 | 850.1 |
| 20260506172352 | 10 | 176 | 9.7 | 16.1 | 0.00 | 0.00 | 0.00 | 67 | 850.1 |
| 20260506172152 | 10 | 176 | 9.7 | 16.1 | 0.00 | 0.00 | 0.00 | 67 | 850.1 |
| 20260506172051 | 10 | 179 | 9.7 | 16.1 | 0.00 | 0.00 | 0.00 | 67 | 850.1 |
| 20260506171952 | 10 | 185 | 9.7 | 16.1 | 0.00 | 0.00 | 0.00 | 67 | 850.1 |
| 20260506171752 | 10 | 183 | 9.7 | 17.7 | 0.00 | 0.00 | 0.00 | 67 | 850.1 |
| 20260506171548 | 10 | 168 | 9.7 | 17.7 | 0.00 | 0.00 | 0.00 | 67 | 850.1 |
| 20260506171350 | 10 | 170 | 9.7 | 12.9 | 0.00 | 0.00 | 0.00 | 67 | 850.1 |
| 20260506171150 | 10 | 173 | 9.7 | 12.9 | 0.00 | 0.00 | 0.00 | 67 | 850.1 |
| 20260506171034 | 10 | 171 | 11.3 | 24.1 | 0.00 | 0.00 | 0.00 | 66 | 850.1 |
| 20260506170934 | 10 | 168 | 12.9 | 24.1 | 0.00 | 0.00 | 0.00 | 66 | 850.1 |
| 20260506170734 | 10 | 173 | 12.9 | 22.5 | 0.00 | 0.00 | 0.00 | 66 | 850.1 |
| 20260506170531 | 11 | 170 | 11.3 | 16.1 | 0.00 | 0.00 | 0.00 | 66 | 850.1 |
| 20260506170332 | 11 | 173 | 11.3 | 19.3 | 0.00 | 0.00 | 0.00 | 66 | 850.1 |
| 20260506170132 | 11 | 179 | 11.3 | 16.1 | 0.00 | 0.00 | 0.00 | 66 | 850.0 |
| 20260506170031 | 11 | 180 | 11.3 | 16.1 | 0.00 | 0.00 | 0.00 | 66 | 850.0 |
| 20260506165933 | 11 | 178 | 11.3 | 19.3 | 0.00 | 0.00 | 0.00 | 66 | 850.0 |
| 20260506165731 | 11 | 176 | 11.3 | 19.3 | 0.00 | 0.00 | 0.00 | 66 | 850.0 |
| 20260506165527 | 11 | 172 | 8.0 | 17.7 | 0.00 | 0.00 | 0.00 | 66 | 850.0 |
| 20260506165328 | 11 | 165 | 8.0 | 16.1 | 0.00 | 0.00 | 0.00 | 66 | 850.1 |
| 20260506165128 | 11 | 173 | 6.4 | 16.1 | 0.00 | 0.00 | 0.00 | 66 | 850.1 |
| 20260506165027 | 11 | 183 | 6.4 | 14.5 | 0.00 | 0.00 | 0.00 | 66 | 850.1 |
| 20260506164928 | 11 | 183 | 6.4 | 14.5 | 0.00 | 0.00 | 0.00 | 66 | 850.1 |
| 20260506164728 | 11 | 184 | 8.0 | 14.5 | 0.00 | 0.00 | 0.00 | 66 | 850.2 |
| 20260506164524 | 11 | 178 | 8.0 | 12.9 | 0.00 | 0.00 | 0.00 | 65 | 850.2 |
| 20260506164326 | 11 | 176 | 6.4 | 11.3 | 0.00 | 0.00 | 0.00 | 65 | 850.2 |
| 20260506164127 | 11 | 174 | 9.7 | 17.7 | 0.00 | 0.00 | 0.00 | 65 | 850.1 |
| 20260506164024 | 11 | 171 | 9.7 | 17.7 | 0.00 | 0.00 | 0.00 | 65 | 850.1 |
| 20260506163926 | 11 | 178 | 9.7 | 17.7 | 0.00 | 0.00 | 0.00 | 65 | 850.1 |
| 20260506163725 | 11 | 177 | 8.0 | 16.1 | 0.00 | 0.00 | 0.00 | 65 | 850.2 |
| 20260506163521 | 11 | 177 | 12.9 | 27.4 | 0.00 | 0.00 | 0.00 | 65 | 850.2 |
| 20260506163322 | 11 | 180 | 12.9 | 19.3 | 0.00 | 0.00 | 0.00 | 65 | 850.2 |
| 20260506163123 | 11 | 173 | 9.7 | 17.7 | 0.00 | 0.00 | 0.00 | 65 | 850.2 |
| 20260506163021 | 12 | 176 | 9.7 | 17.7 | 0.00 | 0.00 | 0.00 | 65 | 850.2 |
| 20260506162921 | 12 | 178 | 12.9 | 20.9 | 0.00 | 0.00 | 0.00 | 65 | 850.2 |
| 20260506162721 | 12 | 182 | 14.5 | 20.9 | 0.00 | 0.00 | 0.00 | 65 | 850.2 |
| 20260506162523 | 12 | 182 | 9.7 | 17.7 | 0.00 | 0.00 | 0.00 | 65 | 850.2 |
| 20260506162518 | 12 | 185 | 12.9 | 22.5 | 0.00 | 0.00 | 0.00 | 65 | 850.2 |
| 20260506162319 | 12 | 183 | 12.9 | 27.4 | 0.00 | 0.00 | 0.00 | 65 | 850.2 |
| 20260506162119 | 12 | 184 | 8.0 | 12.9 | 0.00 | 0.00 | 0.00 | 65 | 850.2 |
| 20260506162017 | 12 | 182 | 9.7 | 17.7 | 0.00 | 0.00 | 0.00 | 65 | 850.2 |
| 20260506161920 | 12 | 179 | 9.7 | 17.7 | 0.00 | 0.00 | 0.00 | 65 | 850.3 |
| 20260506161718 | 12 | 176 | 9.7 | 19.3 | 0.00 | 0.00 | 0.00 | 65 | 850.2 |
| 20260506161515 | 12 | 182 | 11.3 | 20.9 | 0.00 | 0.00 | 0.00 | 65 | 850.3 |
| 20260506161115 | 12 | 176 | 9.7 | 16.1 | 0.00 | 0.00 | 0.00 | 65 | 850.3 |
| 20260506161015 | 12 | 182 | 9.7 | 16.1 | 0.00 | 0.00 | 0.00 | 64 | 850.3 |
| 20260506160915 | 12 | 178 | 11.3 | 20.9 | 0.00 | 0.00 | 0.00 | 65 | 850.4 |
| 20260506160715 | 12 | 178 | 9.7 | 20.9 | 0.00 | 0.00 | 0.00 | 64 | 850.4 |
| 20260506160512 | 12 | 178 | 8.0 | 14.5 | 0.00 | 0.00 | 0.00 | 64 | 850.4 |
| 20260506160113 | 12 | 179 | 11.3 | 20.9 | 0.00 | 0.00 | 0.00 | 64 | 850.3 |
| 20260506160012 | 12 | 185 | 12.9 | 20.9 | 0.00 | 0.00 | 0.00 | 64 | 850.3 |
| 20260506155913 | 12 | 185 | 14.5 | 22.5 | 0.00 | 0.00 | 0.00 | 64 | 850.3 |
| 20260506155713 | 12 | 182 | 12.9 | 22.5 | 0.00 | 0.00 | 0.00 | 64 | 850.3 |
| 20260506155509 | 12 | 179 | 12.9 | 19.3 | 0.00 | 0.00 | 0.00 | 64 | 850.4 |
| 20260506155310 | 12 | 176 | 11.3 | 19.3 | 0.00 | 0.00 | 0.00 | 64 | 850.4 |
| 20260506155110 | 12 | 183 | 9.7 | 16.1 | 0.00 | 0.00 | 0.00 | 64 | 850.4 |
| 20260506155008 | 12 | 184 | 9.7 | 20.9 | 0.00 | 0.00 | 0.00 | 64 | 850.4 |
| 20260506154910 | 12 | 178 | 9.7 | 20.9 | 0.00 | 0.00 | 0.00 | 64 | 850.4 |
| 20260506154709 | 12 | 175 | 9.7 | 14.5 | 0.00 | 0.00 | 0.00 | 64 | 850.4 |
| 20260506154505 | 12 | 176 | 11.3 | 16.1 | 0.00 | 0.00 | 0.00 | 64 | 850.4 |
| 20260506154106 | 12 | 175 | 8.0 | 17.7 | 0.00 | 0.00 | 0.00 | 64 | 850.5 |
| 20260506154005 | 12 | 175 | 9.7 | 17.7 | 0.00 | 0.00 | 0.00 | 64 | 850.5 |
| 20260506153906 | 12 | 177 | 11.3 | 22.5 | 0.00 | 0.00 | 0.00 | 64 | 850.6 |
| 20260506153706 | 12 | 178 | 11.3 | 22.5 | 0.00 | 0.00 | 0.00 | 64 | 850.6 |
| 20260506153502 | 12 | 178 | 11.3 | 17.7 | 0.00 | 0.00 | 0.00 | 64 | 850.6 |
| 20260506153304 | 12 | 176 | 9.7 | 16.1 | 0.00 | 0.00 | 0.00 | 64 | 850.6 |
| 20260506153104 | 12 | 175 | 9.7 | 16.1 | 0.00 | 0.00 | 0.00 | 63 | 850.6 |
| 20260506153002 | 12 | 169 | 9.7 | 16.1 | 0.00 | 0.00 | 0.00 | 63 | 850.5 |
| 20260506152903 | 12 | 170 | 8.0 | 12.9 | 0.00 | 0.00 | 0.00 | 63 | 850.5 |
| 20260506152702 | 12 | 176 | 8.0 | 12.9 | 0.00 | 0.00 | 0.00 | 63 | 850.5 |
| 20260506152459 | 12 | 177 | 8.0 | 14.5 | 0.00 | 0.00 | 0.00 | 63 | 850.5 |
| 20260506152259 | 12 | 171 | 8.0 | 9.7 | 0.00 | 0.00 | 0.00 | 63 | 850.5 |
| 20260506152059 | 12 | 175 | 8.0 | 14.5 | 0.00 | 0.00 | 0.00 | 63 | 850.5 |
| 20260506151958 | 12 | 178 | 9.7 | 14.5 | 0.00 | 0.00 | 0.00 | 63 | 850.5 |
| 20260506151859 | 12 | 176 | 9.7 | 14.5 | 0.00 | 0.00 | 0.00 | 63 | 850.6 |
| 20260506151700 | 12 | 180 | 9.7 | 20.9 | 0.00 | 0.00 | 0.00 | 63 | 850.6 |
| 20260506151456 | 12 | 175 | 12.9 | 20.9 | 0.00 | 0.00 | 0.00 | 63 | 850.6 |
| 20260506151256 | 12 | 178 | 11.3 | 17.7 | 0.00 | 0.00 | 0.00 | 63 | 850.7 |
| 20260506151056 | 12 | 178 | 8.0 | 17.7 | 0.00 | 0.00 | 0.00 | 63 | 850.7 |
| 20260506150956 | 12 | 178 | 6.4 | 14.5 | 0.00 | 0.00 | 0.00 | 63 | 850.7 |
| 20260506150856 | 12 | 180 | 8.0 | 11.3 | 0.00 | 0.00 | 0.00 | 63 | 850.7 |
| 20260506150452 | 12 | 174 | 6.4 | 11.3 | 0.00 | 0.00 | 0.00 | 63 | 850.7 |
| 20260506150259 | 12 | 174 | 4.8 | 9.7 | 0.00 | 0.00 | 0.00 | 63 | 850.7 |
| 20260506150053 | 13 | 173 | 6.4 | 14.5 | 0.00 | 0.00 | 0.00 | 63 | 850.7 |
| 20260506145952 | 13 | 176 | 6.4 | 14.5 | 0.00 | 0.00 | 0.00 | 63 | 850.7 |
| 20260506145852 | 13 | 173 | 6.4 | 14.5 | 0.00 | 0.00 | 0.00 | 63 | 850.7 |
| 20260506145652 | 13 | 168 | 4.8 | 8.0 | 0.00 | 0.00 | 0.00 | 63 | 850.7 |
| 20260506145449 | 13 | 175 | 8.0 | 16.1 | 0.00 | 0.00 | 0.00 | 63 | 850.7 |
| 20260506145251 | 13 | 191 | 9.7 | 17.7 | 0.00 | 0.00 | 0.00 | 63 | 850.6 |
| 20260506145050 | 13 | 194 | 11.3 | 19.3 | 0.00 | 0.00 | 0.00 | 63 | 850.6 |
| 20260506144949 | 13 | 190 | 11.3 | 19.3 | 0.00 | 0.00 | 0.00 | 63 | 850.6 |
| 20260506144850 | 13 | 189 | 9.7 | 19.3 | 0.00 | 0.00 | 0.00 | 63 | 850.6 |
| 20260506144650 | 13 | 183 | 9.7 | 17.7 | 0.00 | 0.00 | 0.00 | 63 | 850.7 |
| 20260506144446 | 13 | 189 | 9.7 | 17.7 | 0.00 | 0.00 | 0.00 | 63 | 850.7 |
| 20260506144246 | 13 | 190 | 8.0 | 14.5 | 0.00 | 0.00 | 0.00 | 63 | 850.8 |
| 20260506144047 | 13 | 185 | 8.0 | 12.9 | 0.00 | 0.00 | 0.00 | 63 | 850.8 |
| 20260506143945 | 13 | 185 | 8.0 | 17.7 | 0.00 | 0.00 | 0.00 | 63 | 850.8 |
| 20260506143845 | 13 | 184 | 8.0 | 17.7 | 0.00 | 0.00 | 0.00 | 63 | 850.8 |
| 20260506143646 | 13 | 184 | 6.4 | 12.9 | 0.00 | 0.00 | 0.00 | 63 | 850.8 |
| 20260506143429 | 13 | 191 | 8.0 | 16.1 | 0.00 | 0.00 | 0.00 | 63 | 850.8 |
| 20260506143231 | 13 | 186 | 6.4 | 16.1 | 0.00 | 0.00 | 0.00 | 62 | 850.8 |
| 20260506143031 | 13 | 174 | 6.4 | 11.3 | 0.00 | 0.00 | 0.00 | 62 | 850.8 |
| 20260506142929 | 13 | 179 | 8.0 | 12.9 | 0.00 | 0.00 | 0.00 | 62 | 850.8 |
| 20260506142830 | 13 | 182 | 8.0 | 14.5 | 0.00 | 0.00 | 0.00 | 62 | 850.8 |
| 20260506142629 | 13 | 172 | 6.4 | 14.5 | 0.00 | 0.00 | 0.00 | 62 | 850.8 |
| 20260506142426 | 13 | 175 | 8.0 | 16.1 | 0.00 | 0.00 | 0.00 | 62 | 850.8 |
| 20260506142227 | 13 | 182 | 6.4 | 14.5 | 0.00 | 0.00 | 0.00 | 62 | 850.9 |
| 20260506142027 | 13 | 179 | 11.3 | 17.7 | 0.00 | 0.00 | 0.00 | 62 | 850.8 |
| 20260506141926 | 13 | 182 | 11.3 | 17.7 | 0.00 | 0.00 | 0.00 | 62 | 850.8 |
| 20260506141827 | 13 | 182 | 11.3 | 19.3 | 0.00 | 0.00 | 0.00 | 62 | 850.8 |
| 20260506141627 | 13 | 175 | 9.7 | 19.3 | 0.00 | 0.00 | 0.00 | 62 | 850.8 |
| 20260506141423 | 13 | 173 | 6.4 | 14.5 | 0.00 | 0.00 | 0.00 | 62 | 850.8 |
| 20260506141225 | 13 | 171 | 6.4 | 11.3 | 0.00 | 0.00 | 0.00 | 62 | 850.9 |
| 20260506141025 | 13 | 179 | 9.7 | 19.3 | 0.00 | 0.00 | 0.00 | 62 | 850.8 |
| 20260506140923 | 14 | 176 | 11.3 | 19.3 | 0.00 | 0.00 | 0.00 | 62 | 850.8 |
| 20260506140825 | 14 | 176 | 9.7 | 19.3 | 0.00 | 0.00 | 0.00 | 62 | 850.8 |
| 20260506140624 | 14 | 183 | 6.4 | 12.9 | 0.00 | 0.00 | 0.00 | 62 | 850.8 |
| 20260506140420 | 14 | 183 | 6.4 | 17.7 | 0.00 | 0.00 | 0.00 | 61 | 850.8 |
| 20260506140221 | 15 | 188 | 9.7 | 17.7 | 0.00 | 0.00 | 0.00 | 61 | 850.8 |
| 20260506140020 | 15 | 181 | 8.0 | 16.1 | 0.00 | 0.00 | 0.00 | 61 | 850.7 |
| 20260506135920 | 15 | 184 | 6.4 | 16.1 | 0.00 | 0.00 | 0.00 | 61 | 850.7 |
| 20260506135820 | 15 | 195 | 6.4 | 16.1 | 0.00 | 0.00 | 0.00 | 62 | 850.7 |
| 20260506135621 | 15 | 189 | 8.0 | 14.5 | 0.00 | 0.00 | 0.00 | 61 | 850.7 |
| 20260506135417 | 15 | 188 | 11.3 | 19.3 | 0.00 | 0.00 | 0.00 | 61 | 850.7 |
| 20260506135219 | 15 | 181 | 11.3 | 17.7 | 0.00 | 0.00 | 0.00 | 61 | 850.7 |
| 20260506135019 | 15 | 188 | 9.7 | 14.5 | 0.00 | 0.00 | 0.00 | 61 | 850.6 |
| 20260506134917 | 15 | 197 | 8.0 | 14.5 | 0.00 | 0.00 | 0.00 | 61 | 850.6 |
| 20260506134818 | 15 | 199 | 8.0 | 14.5 | 0.00 | 0.00 | 0.00 | 61 | 850.5 |
| 20260506134619 | 15 | 193 | 9.7 | 14.5 | 0.00 | 0.00 | 0.00 | 62 | 850.6 |
| 20260506134414 | 14 | 193 | 8.0 | 17.7 | 0.00 | 0.00 | 0.00 | 61 | 850.7 |
| 20260506134215 | 14 | 196 | 6.4 | 17.7 | 0.00 | 0.00 | 0.00 | 62 | 850.8 |
| 20260506134015 | 14 | 180 | 6.4 | 17.7 | 0.00 | 0.00 | 0.00 | 62 | 850.8 |
| 20260506133914 | 14 | 187 | 8.0 | 17.7 | 0.00 | 0.00 | 0.00 | 62 | 850.8 |
| 20260506133814 | 14 | 189 | 9.7 | 19.3 | 0.00 | 0.00 | 0.00 | 62 | 850.8 |
| 20260506133614 | 15 | 189 | 9.7 | 19.3 | 0.00 | 0.00 | 0.00 | 61 | 850.8 |
| 20260506133411 | 15 | 197 | 9.7 | 14.5 | 0.00 | 0.00 | 0.00 | 61 | 850.7 |
| 20260506133212 | 15 | 186 | 6.4 | 12.9 | 0.00 | 0.00 | 0.00 | 61 | 850.7 |
| 20260506132911 | 15 | 200 | 11.3 | 19.3 | 0.00 | 0.00 | 0.00 | 61 | 850.7 |
| 20260506132812 | 15 | 206 | 11.3 | 19.3 | 0.00 | 0.00 | 0.00 | 61 | 850.7 |
| 20260506132408 | 15 | 204 | 8.0 | 14.5 | 0.00 | 0.00 | 0.00 | 61 | 850.6 |
| 20260506132210 | 15 | 199 | 9.7 | 17.7 | 0.00 | 0.00 | 0.00 | 62 | 850.6 |
| 20260506132010 | 14 | 204 | 11.3 | 17.7 | 0.00 | 0.00 | 0.00 | 61 | 850.7 |
| 20260506131908 | 14 | 205 | 9.7 | 14.5 | 0.00 | 0.00 | 0.00 | 61 | 850.7 |
| 20260506131609 | 14 | 194 | 9.7 | 17.7 | 0.00 | 0.00 | 0.00 | 61 | 850.8 |
| 20260506131405 | 15 | 194 | 9.7 | 16.1 | 0.00 | 0.00 | 0.00 | 61 | 850.9 |
| 20260506131207 | 15 | 189 | 9.7 | 16.1 | 0.00 | 0.00 | 0.00 | 61 | 850.9 |
| 20260506131006 | 15 | 196 | 12.9 | 29.0 | 0.00 | 0.00 | 0.00 | 61 | 850.8 |
| 20260506130905 | 15 | 198 | 11.3 | 29.0 | 0.00 | 0.00 | 0.00 | 61 | 850.8 |
| 20260506130806 | 15 | 202 | 9.7 | 29.0 | 0.00 | 0.00 | 0.00 | 61 | 850.8 |
| 20260506130606 | 15 | 201 | 9.7 | 20.9 | 0.00 | 0.00 | 0.00 | 61 | 850.8 |
| 20260506130402 | 15 | 206 | 11.3 | 19.3 | 0.00 | 0.00 | 0.00 | 61 | 850.8 |
| 20260506130204 | 15 | 196 | 6.4 | 19.3 | 0.00 | 0.00 | 0.00 | 61 | 850.9 |
| 20260506130004 | 15 | 191 | 9.7 | 25.7 | 0.00 | 0.00 | 0.00 | 60 | 851.0 |
| 20260506125903 | 15 | 201 | 12.9 | 25.7 | 0.00 | 0.00 | 0.00 | 60 | 851.0 |
| 20260506125803 | 15 | 208 | 14.5 | 25.7 | 0.00 | 0.00 | 0.00 | 61 | 851.0 |
| 20260506125603 | 15 | 212 | 11.3 | 19.3 | 0.00 | 0.00 | 0.00 | 61 | 850.8 |
| 20260506125359 | 15 | 208 | 9.7 | 19.3 | 0.00 | 0.00 | 0.00 | 61 | 850.6 |
| 20260506125159 | 15 | 203 | 8.0 | 14.5 | 0.00 | 0.00 | 0.00 | 62 | 850.4 |
| 20260506124959 | 14 | 203 | 12.9 | 24.1 | 0.00 | 0.00 | 0.00 | 62 | 850.4 |
| 20260506124859 | 14 | 204 | 12.9 | 24.1 | 0.00 | 0.00 | 0.00 | 62 | 850.4 |
| 20260506124800 | 14 | 210 | 9.7 | 22.5 | 0.00 | 0.00 | 0.00 | 62 | 850.4 |
| 20260506124600 | 14 | 204 | 8.0 | 16.1 | 0.00 | 0.00 | 0.00 | 62 | 850.5 |
| 20260506124356 | 14 | 211 | 9.7 | 14.5 | 0.00 | 0.00 | 0.00 | 62 | 850.5 |
| 20260506124157 | 14 | 239 | 6.4 | 12.9 | 0.00 | 0.00 | 0.00 | 62 | 850.4 |
| 20260506123957 | 15 | 242 | 9.7 | 14.5 | 0.00 | 0.00 | 0.00 | 62 | 850.3 |
| 20260506123856 | 15 | 230 | 8.0 | 14.5 | 0.00 | 0.00 | 0.00 | 62 | 850.3 |
| 20260506123757 | 15 | 214 | 9.7 | 16.1 | 0.00 | 0.00 | 0.00 | 62 | 850.3 |
| 20260506123556 | 15 | 203 | 8.0 | 16.1 | 0.00 | 0.00 | 0.00 | 62 | 850.3 |
| 20260506123353 | 14 | 216 | 11.3 | 19.3 | 0.00 | 0.00 | 0.00 | 62 | 850.5 |
| 20260506123153 | 14 | 215 | 11.3 | 19.3 | 0.00 | 0.00 | 0.00 | 62 | 850.7 |
| 20260506122954 | 14 | 211 | 11.3 | 24.1 | 0.00 | 0.00 | 0.00 | 62 | 850.8 |
| 20260506122853 | 14 | 208 | 12.9 | 24.1 | 0.00 | 0.00 | 0.00 | 62 | 850.8 |
| 20260506122753 | 14 | 212 | 9.7 | 16.1 | 0.00 | 0.00 | 0.00 | 62 | 850.9 |
| 20260506122554 | 14 | 212 | 9.7 | 14.5 | 0.00 | 0.00 | 0.00 | 62 | 850.9 |
| 20260506122350 | 14 | 191 | 8.0 | 12.9 | 0.00 | 0.00 | 0.00 | 62 | 850.8 |
| 20260506122151 | 14 | 197 | 4.8 | 8.0 | 0.00 | 0.00 | 0.00 | 62 | 850.8 |
| 20260506121952 | 14 | 203 | 4.8 | 11.3 | 0.00 | 0.00 | 0.00 | 62 | 850.9 |
| 20260506121850 | 15 | 204 | 6.4 | 11.3 | 0.00 | 0.00 | 0.00 | 62 | 850.8 |
| 20260506121552 | 15 | 200 | 6.4 | 14.5 | 0.00 | 0.00 | 0.00 | 62 | 850.8 |
| 20260506121347 | 15 | 200 | 6.4 | 14.5 | 0.00 | 0.00 | 0.00 | 62 | 850.8 |
| 20260506121148 | 16 | 189 | 6.4 | 12.9 | 0.00 | 0.00 | 0.00 | 62 | 850.7 |
| 20260506120948 | 16 | 193 | 4.8 | 9.7 | 0.00 | 0.00 | 0.00 | 61 | 850.7 |
| 20260506120847 | 16 | 194 | 8.0 | 17.7 | 0.00 | 0.00 | 0.00 | 61 | 850.7 |
| 20260506120747 | 16 | 197 | 9.7 | 19.3 | 0.00 | 0.00 | 0.00 | 61 | 850.7 |
| 20260506120547 | 16 | 194 | 12.9 | 20.9 | 0.00 | 0.00 | 0.00 | 61 | 850.6 |
| 20260506120344 | 16 | 194 | 14.5 | 20.9 | 0.00 | 0.00 | 0.00 | 61 | 850.5 |
| 20260506120145 | 16 | 232 | 8.0 | 16.1 | 0.00 | 0.00 | 0.00 | 62 | 850.5 |
| 20260506115945 | 16 | 239 | 6.4 | 11.3 | 0.00 | 0.00 | 0.00 | 62 | 850.6 |
| 20260506115831 | 15 | 228 | 9.7 | 14.5 | 0.00 | 0.00 | 0.00 | 62 | 850.6 |
| 20260506115731 | 15 | 222 | 11.3 | 27.4 | 0.00 | 0.00 | 0.00 | 62 | 850.6 |
| 20260506115532 | 15 | 213 | 12.9 | 27.4 | 0.00 | 0.00 | 0.00 | 63 | 850.6 |
| 20260506115328 | 14 | 206 | 9.7 | 22.5 | 0.00 | 0.00 | 0.00 | 63 | 850.7 |
| 20260506115129 | 14 | 195 | 9.7 | 19.3 | 0.00 | 0.00 | 0.00 | 63 | 850.8 |
| 20260506114929 | 13 | 219 | 9.7 | 19.3 | 0.00 | 0.00 | 0.00 | 63 | 850.9 |
| 20260506114828 | 14 | 227 | 9.7 | 17.7 | 0.00 | 0.00 | 0.00 | 63 | 850.9 |
| 20260506114730 | 14 | 234 | 9.7 | 12.9 | 0.00 | 0.00 | 0.00 | 63 | 850.8 |
| 20260506114530 | 14 | 230 | 11.3 | 24.1 | 0.00 | 0.00 | 0.00 | 63 | 850.8 |
| 20260506114325 | 14 | 226 | 11.3 | 24.1 | 0.00 | 0.00 | 0.00 | 63 | 850.7 |
| 20260506114125 | 13 | 228 | 11.3 | 16.1 | 0.00 | 0.00 | 0.00 | 63 | 850.7 |
| 20260506113926 | 13 | 222 | 6.4 | 12.9 | 0.00 | 0.00 | 0.00 | 63 | 850.7 |
| 20260506113824 | 13 | 205 | 6.4 | 14.5 | 0.00 | 0.00 | 0.00 | 63 | 850.8 |
| 20260506113725 | 13 | 200 | 6.4 | 14.5 | 0.00 | 0.00 | 0.00 | 63 | 850.8 |
| 20260506113526 | 13 | 188 | 9.7 | 12.9 | 0.00 | 0.00 | 0.00 | 63 | 850.9 |
| 20260506113321 | 14 | 183 | 11.3 | 20.9 | 0.00 | 0.00 | 0.00 | 63 | 850.9 |
| 20260506113122 | 14 | 194 | 9.7 | 14.5 | 0.00 | 0.00 | 0.00 | 63 | 850.8 |
| 20260506112922 | 14 | 194 | 11.3 | 19.3 | 0.00 | 0.00 | 0.00 | 63 | 850.8 |
| 20260506112821 | 14 | 200 | 11.3 | 19.3 | 0.00 | 0.00 | 0.00 | 63 | 850.8 |
| 20260506112721 | 14 | 199 | 11.3 | 19.3 | 0.00 | 0.00 | 0.00 | 63 | 850.8 |
| 20260506112522 | 13 | 193 | 11.3 | 17.7 | 0.00 | 0.00 | 0.00 | 63 | 850.9 |
| 20260506112318 | 13 | 213 | 11.3 | 16.1 | 0.00 | 0.00 | 0.00 | 63 | 850.9 |
| 20260506112118 | 14 | 236 | 11.3 | 16.1 | 0.00 | 0.00 | 0.00 | 62 | 850.9 |
| 20260506111919 | 15 | 235 | 12.9 | 20.9 | 0.00 | 0.00 | 0.00 | 62 | 850.8 |
| 20260506111818 | 15 | 237 | 12.9 | 20.9 | 0.00 | 0.00 | 0.00 | 62 | 850.8 |
| 20260506111718 | 15 | 243 | 11.3 | 19.3 | 0.00 | 0.00 | 0.00 | 62 | 850.8 |
| 20260506111518 | 16 | 249 | 11.3 | 17.7 | 0.00 | 0.00 | 0.00 | 62 | 850.6 |
| 20260506111314 | 16 | 209 | 11.3 | 19.3 | 0.00 | 0.00 | 0.00 | 62 | 850.6 |
| 20260506111115 | 16 | 196 | 12.9 | 19.3 | 0.00 | 0.00 | 0.00 | 62 | 850.6 |
| 20260506110915 | 16 | 201 | 8.0 | 12.9 | 0.00 | 0.00 | 0.00 | 62 | 850.6 |
| 20260506110814 | 16 | 213 | 8.0 | 16.1 | 0.00 | 0.00 | 0.00 | 62 | 850.6 |
| 20260506110715 | 16 | 223 | 8.0 | 16.1 | 0.00 | 0.00 | 0.00 | 62 | 850.6 |
| 20260506110515 | 16 | 220 | 9.7 | 19.3 | 0.00 | 0.00 | 0.00 | 62 | 850.6 |
| 20260506110311 | 16 | 197 | 16.1 | 25.7 | 0.00 | 0.00 | 0.00 | 62 | 850.6 |
| 20260506110110 | 16 | 199 | 16.1 | 25.7 | 0.00 | 0.00 | 0.00 | 62 | 850.5 |
| 20260506105910 | 16 | 203 | 11.3 | 24.1 | 0.00 | 0.00 | 0.00 | 62 | 850.5 |
| 20260506105809 | 15 | 202 | 8.0 | 16.1 | 0.00 | 0.00 | 0.00 | 62 | 850.5 |
| 20260506105709 | 15 | 215 | 6.4 | 11.3 | 0.00 | 0.00 | 0.00 | 62 | 850.5 |
| 20260506105509 | 15 | 214 | 8.0 | 14.5 | 0.00 | 0.00 | 0.00 | 62 | 850.5 |
| 20260506105306 | 15 | 226 | 9.7 | 14.5 | 0.00 | 0.00 | 0.00 | 62 | 850.6 |
| 20260506105108 | 14 | 227 | 9.7 | 19.3 | 0.00 | 0.00 | 0.00 | 63 | 850.6 |
| 20260506104908 | 13 | 238 | 9.7 | 19.3 | 0.00 | 0.00 | 0.00 | 63 | 850.7 |
| 20260506104806 | 13 | 238 | 8.0 | 16.1 | 0.00 | 0.00 | 0.00 | 63 | 850.7 |
| 20260506104708 | 13 | 238 | 9.7 | 22.5 | 0.00 | 0.00 | 0.00 | 63 | 850.7 |
| 20260506104507 | 13 | 233 | 12.9 | 22.5 | 0.00 | 0.00 | 0.00 | 63 | 850.7 |
| 20260506104303 | 13 | 238 | 14.5 | 22.5 | 0.00 | 0.00 | 0.00 | 63 | 850.7 |
| 20260506104103 | 13 | 246 | 14.5 | 20.9 | 0.00 | 0.00 | 0.00 | 63 | 850.7 |
| 20260506103904 | 14 | 245 | 11.3 | 17.7 | 0.00 | 0.00 | 0.00 | 62 | 850.7 |
| 20260506103803 | 14 | 256 | 12.9 | 25.7 | 0.00 | 0.00 | 0.00 | 62 | 850.7 |
| 20260506103703 | 14 | 250 | 14.5 | 25.7 | 0.00 | 0.00 | 0.00 | 62 | 850.6 |
| 20260506103503 | 14 | 241 | 16.1 | 24.1 | 0.00 | 0.00 | 0.00 | 63 | 850.6 |
| 20260506103300 | 14 | 238 | 12.9 | 22.5 | 0.00 | 0.00 | 0.00 | 63 | 850.6 |
| 20260506103101 | 13 | 243 | 12.9 | 20.9 | 0.00 | 0.00 | 0.00 | 63 | 850.6 |
| 20260506102901 | 13 | 232 | 12.9 | 20.9 | 0.00 | 0.00 | 0.00 | 63 | 850.7 |
| 20260506102800 | 13 | 229 | 12.9 | 22.5 | 0.00 | 0.00 | 0.00 | 63 | 850.7 |
| 20260506102702 | 13 | 236 | 14.5 | 22.5 | 0.00 | 0.00 | 0.00 | 63 | 850.8 |
| 20260506102501 | 13 | 227 | 16.1 | 29.0 | 0.00 | 0.00 | 0.00 | 63 | 850.8 |
| 20260506102257 | 13 | 223 | 17.7 | 29.0 | 0.00 | 0.00 | 0.00 | 63 | 850.9 |
| 20260506102057 | 13 | 229 | 16.1 | 25.7 | 0.00 | 0.00 | 0.00 | 63 | 850.9 |
| 20260506101858 | 13 | 240 | 14.5 | 25.7 | 0.00 | 0.00 | 0.00 | 63 | 850.9 |
| 20260506101757 | 13 | 239 | 12.9 | 19.3 | 0.00 | 0.00 | 0.00 | 63 | 850.8 |
| 20260506101458 | 13 | 225 | 11.3 | 16.1 | 0.00 | 0.00 | 0.00 | 63 | 850.8 |
| 20260506101254 | 13 | 225 | 12.9 | 17.7 | 0.00 | 0.00 | 0.00 | 63 | 850.8 |
| 20260506101055 | 13 | 231 | 8.0 | 14.5 | 0.00 | 0.00 | 0.00 | 63 | 850.8 |
| 20260506100854 | 14 | 248 | 9.7 | 20.9 | 0.00 | 0.00 | 0.00 | 63 | 850.7 |
| 20260506100754 | 14 | 239 | 9.7 | 20.9 | 0.00 | 0.00 | 0.00 | 63 | 850.7 |
| 20260506100654 | 14 | 222 | 11.3 | 20.9 | 0.00 | 0.00 | 0.00 | 63 | 850.7 |
| 20260506100454 | 14 | 220 | 11.3 | 17.7 | 0.00 | 0.00 | 0.00 | 63 | 850.7 |
| 20260506100251 | 14 | 207 | 12.9 | 20.9 | 0.00 | 0.00 | 0.00 | 63 | 850.6 |
| 20260506100052 | 14 | 198 | 9.7 | 17.7 | 0.00 | 0.00 | 0.00 | 63 | 850.6 |
| 20260506095852 | 14 | 213 | 9.7 | 19.3 | 0.00 | 0.00 | 0.00 | 63 | 850.7 |
| 20260506095751 | 14 | 229 | 11.3 | 19.3 | 0.00 | 0.00 | 0.00 | 63 | 850.7 |
| 20260506095652 | 14 | 233 | 12.9 | 19.3 | 0.00 | 0.00 | 0.00 | 63 | 850.6 |
| 20260506095451 | 14 | 237 | 12.9 | 19.3 | 0.00 | 0.00 | 0.00 | 63 | 850.6 |
| 20260506095248 | 14 | 220 | 11.3 | 19.3 | 0.00 | 0.00 | 0.00 | 63 | 850.6 |
| 20260506095049 | 14 | 216 | 12.9 | 20.9 | 0.00 | 0.00 | 0.00 | 63 | 850.6 |
| 20260506094849 | 14 | 221 | 9.7 | 19.3 | 0.00 | 0.00 | 0.00 | 63 | 850.5 |
| 20260506094747 | 14 | 219 | 6.4 | 16.1 | 0.00 | 0.00 | 0.00 | 63 | 850.5 |
| 20260506094648 | 14 | 210 | 8.0 | 16.1 | 0.00 | 0.00 | 0.00 | 63 | 850.5 |
| 20260506094244 | 13 | 211 | 8.0 | 16.1 | 0.00 | 0.00 | 0.00 | 64 | 850.5 |
| 20260506094045 | 13 | 200 | 9.7 | 22.5 | 0.00 | 0.00 | 0.00 | 64 | 850.5 |
| 20260506093744 | 13 | 212 | 12.9 | 20.9 | 0.00 | 0.00 | 0.00 | 64 | 850.6 |
| 20260506093644 | 13 | 210 | 12.9 | 20.9 | 0.00 | 0.00 | 0.00 | 64 | 850.6 |
| 20260506093444 | 13 | 208 | 12.9 | 25.7 | 0.00 | 0.00 | 0.00 | 64 | 850.5 |
| 20260506093241 | 13 | 197 | 14.5 | 25.7 | 0.00 | 0.00 | 0.00 | 64 | 850.5 |
| 20260506093042 | 13 | 202 | 11.3 | 19.3 | 0.00 | 0.00 | 0.00 | 64 | 850.5 |
| 20260506092741 | 13 | 198 | 14.5 | 22.5 | 0.00 | 0.00 | 0.00 | 64 | 850.5 |
| 20260506092225 | 13 | 209 | 11.3 | 19.3 | 0.00 | 0.00 | 0.00 | 65 | 850.4 |
| 20260506092026 | 13 | 210 | 8.0 | 19.3 | 0.00 | 0.00 | 0.00 | 65 | 850.3 |
| 20260506091826 | 13 | 214 | 6.4 | 11.3 | 0.00 | 0.00 | 0.00 | 65 | 850.3 |
| 20260506091725 | 13 | 212 | 8.0 | 17.7 | 0.00 | 0.00 | 0.00 | 65 | 850.3 |
| 20260506091625 | 13 | 208 | 11.3 | 17.7 | 0.00 | 0.00 | 0.00 | 65 | 850.3 |
| 20260506091427 | 13 | 209 | 12.9 | 20.9 | 0.00 | 0.00 | 0.00 | 65 | 850.4 |
| 20260506091221 | 13 | 218 | 11.3 | 17.7 | 0.00 | 0.00 | 0.00 | 65 | 850.4 |
| 20260506091022 | 12 | 213 | 14.5 | 24.1 | 0.00 | 0.00 | 0.00 | 65 | 850.4 |
| 20260506090822 | 12 | 205 | 12.9 | 24.1 | 0.00 | 0.00 | 0.00 | 66 | 850.3 |
| 20260506090720 | 12 | 209 | 11.3 | 22.5 | 0.00 | 0.00 | 0.00 | 66 | 850.4 |
| 20260506090621 | 12 | 220 | 9.7 | 16.1 | 0.00 | 0.00 | 0.00 | 66 | 850.4 |
| 20260506090421 | 12 | 225 | 11.3 | 17.7 | 0.00 | 0.00 | 0.00 | 66 | 850.3 |
| 20260506090217 | 12 | 230 | 14.5 | 22.5 | 0.00 | 0.00 | 0.00 | 66 | 850.3 |
| 20260506090018 | 12 | 203 | 14.5 | 22.5 | 0.00 | 0.00 | 0.00 | 66 | 850.2 |
| 20260506085818 | 12 | 193 | 14.5 | 24.1 | 0.00 | 0.00 | 0.00 | 66 | 850.2 |
| 20260506085717 | 12 | 197 | 14.5 | 24.1 | 0.00 | 0.00 | 0.00 | 66 | 850.3 |
| 20260506085618 | 12 | 195 | 14.5 | 24.1 | 0.00 | 0.00 | 0.00 | 66 | 850.2 |
| 20260506085418 | 12 | 198 | 16.1 | 25.7 | 0.00 | 0.00 | 0.00 | 66 | 850.2 |
| 20260506085214 | 12 | 196 | 14.5 | 24.1 | 0.00 | 0.00 | 0.00 | 66 | 850.2 |
| 20260506085017 | 12 | 203 | 12.9 | 22.5 | 0.00 | 0.00 | 0.00 | 66 | 850.2 |
| 20260506084817 | 12 | 196 | 14.5 | 17.7 | 0.00 | 0.00 | 0.00 | 66 | 850.2 |
| 20260506084714 | 12 | 192 | 16.1 | 27.4 | 0.00 | 0.00 | 0.00 | 66 | 850.2 |
| 20260506084616 | 12 | 193 | 14.5 | 27.4 | 0.00 | 0.00 | 0.00 | 66 | 850.2 |
| 20260506084416 | 12 | 199 | 14.5 | 25.7 | 0.00 | 0.00 | 0.00 | 66 | 850.2 |
| 20260506084211 | 12 | 199 | 16.1 | 25.7 | 0.00 | 0.00 | 0.00 | 66 | 850.2 |
| 20260506084012 | 12 | 194 | 14.5 | 19.3 | 0.00 | 0.00 | 0.00 | 66 | 850.2 |
| 20260506083813 | 12 | 205 | 14.5 | 19.3 | 0.00 | 0.00 | 0.00 | 66 | 850.1 |
| 20260506083711 | 12 | 220 | 12.9 | 19.3 | 0.00 | 0.00 | 0.00 | 66 | 850.1 |
| 20260506083208 | 12 | 219 | 12.9 | 20.9 | 0.00 | 0.00 | 0.00 | 67 | 850.1 |
| 20260506083010 | 12 | 201 | 11.3 | 19.3 | 0.00 | 0.00 | 0.00 | 67 | 850.1 |
| 20260506082708 | 11 | 211 | 12.9 | 20.9 | 0.00 | 0.00 | 0.00 | 67 | 850.1 |
| 20260506082606 | 11 | 202 | 14.5 | 20.9 | 0.00 | 0.00 | 0.00 | 67 | 850.1 |
| 20260506082405 | 11 | 193 | 12.9 | 20.9 | 0.00 | 0.00 | 0.00 | 67 | 850.1 |
| 20260506082202 | 11 | 204 | 14.5 | 25.7 | 0.00 | 0.00 | 0.00 | 67 | 850.1 |
| 20260506082004 | 11 | 196 | 16.1 | 32.2 | 0.00 | 0.00 | 0.00 | 67 | 850.1 |
| 20260506081803 | 11 | 206 | 16.1 | 32.2 | 0.00 | 0.00 | 0.00 | 67 | 850.1 |
| 20260506081702 | 11 | 208 | 14.5 | 20.9 | 0.00 | 0.00 | 0.00 | 67 | 850.1 |
| 20260506081402 | 11 | 200 | 17.7 | 29.0 | 0.00 | 0.00 | 0.00 | 67 | 850.0 |
| 20260506081159 | 11 | 196 | 17.7 | 25.7 | 0.00 | 0.00 | 0.00 | 67 | 850.0 |
| 20260506081000 | 11 | 197 | 16.1 | 25.7 | 0.00 | 0.00 | 0.00 | 67 | 850.0 |
| 20260506080801 | 11 | 201 | 19.3 | 32.2 | 0.00 | 0.00 | 0.00 | 67 | 849.9 |
| 20260506080659 | 11 | 200 | 20.9 | 32.2 | 0.00 | 0.00 | 0.00 | 67 | 849.9 |
| 20260506080156 | 11 | 211 | 14.5 | 22.5 | 0.00 | 0.00 | 0.00 | 68 | 849.8 |
| 20260506073350 | 10 | 201 | 20.9 | 32.2 | 0.00 | 0.00 | 0.00 | 69 | 849.8 |
| 20260506073146 | 10 | 200 | 19.3 | 29.0 | 0.00 | 0.00 | 0.00 | 69 | 849.7 |
| 20260506072948 | 10 | 194 | 20.9 | 32.2 | 0.00 | 0.00 | 0.00 | 69 | 849.7 |
| 20260506072748 | 10 | 193 | 20.9 | 32.2 | 0.00 | 0.00 | 0.00 | 69 | 849.7 |
| 20260506072646 | 10 | 195 | 17.7 | 32.2 | 0.00 | 0.00 | 0.00 | 69 | 849.7 |
| 20260506072547 | 10 | 198 | 14.5 | 24.1 | 0.00 | 0.00 | 0.00 | 69 | 849.6 |
| 20260506072347 | 10 | 200 | 16.1 | 20.9 | 0.00 | 0.00 | 0.00 | 69 | 849.5 |
| 20260506072143 | 10 | 203 | 17.7 | 33.8 | 0.00 | 0.00 | 0.00 | 69 | 849.4 |
| 20260506071946 | 10 | 201 | 12.9 | 16.1 | 0.00 | 0.00 | 0.00 | 69 | 849.3 |
| 20260506071746 | 10 | 200 | 16.1 | 22.5 | 0.00 | 0.00 | 0.00 | 69 | 849.2 |
| 20260506071643 | 10 | 198 | 16.1 | 22.5 | 0.00 | 0.00 | 0.00 | 69 | 849.2 |
| 20260506071554 | 10 | 192 | 16.1 | 22.5 | 0.00 | 0.00 | 0.00 | 69 | 849.2 |
| 20260506071344 | 10 | 189 | 16.1 | 25.7 | 0.00 | 0.00 | 0.00 | 69 | 849.2 |
| 20260506071141 | 9 | 190 | 16.1 | 25.7 | 0.00 | 0.00 | 0.00 | 70 | 849.2 |
| 20260506070942 | 9 | 193 | 16.1 | 25.7 | 0.00 | 0.00 | 0.00 | 70 | 849.3 |
| 20260506070742 | 9 | 194 | 19.3 | 32.2 | 0.00 | 0.00 | 0.00 | 70 | 849.3 |
| 20260506070641 | 9 | 191 | 20.9 | 32.2 | 0.00 | 0.00 | 0.00 | 70 | 849.3 |
| 20260506070341 | 9 | 201 | 20.9 | 35.4 | 0.00 | 0.00 | 0.00 | 70 | 849.2 |
| 20260506070137 | 9 | 207 | 19.3 | 35.4 | 0.00 | 0.00 | 0.00 | 70 | 849.2 |
| 20260506062517 | 8 | 192 | 22.5 | 37.0 | 0.00 | 0.00 | 0.00 | 71 | 848.7 |
| 20260506062317 | 8 | 193 | 20.9 | 27.4 | 0.00 | 0.00 | 0.00 | 71 | 848.8 |
| 20260506062112 | 8 | 197 | 24.1 | 35.4 | 0.00 | 0.00 | 0.00 | 70 | 848.8 |
| 20260506061914 | 8 | 194 | 24.1 | 37.0 | 0.00 | 0.00 | 0.00 | 70 | 848.8 |
| 20260506061612 | 8 | 192 | 25.7 | 38.6 | 0.00 | 0.00 | 0.00 | 70 | 848.8 |
| 20260506061513 | 8 | 193 | 25.7 | 38.6 | 0.00 | 0.00 | 0.00 | 70 | 848.9 |
| 20260506061314 | 8 | 196 | 24.1 | 32.2 | 0.00 | 0.00 | 0.00 | 70 | 848.9 |
| 20260506061109 | 8 | 190 | 24.1 | 32.2 | 0.00 | 0.00 | 0.00 | 70 | 848.9 |
| 20260506060911 | 8 | 191 | 22.5 | 32.2 | 0.00 | 0.00 | 0.00 | 70 | 848.9 |
| 20260506060710 | 8 | 191 | 22.5 | 29.0 | 0.00 | 0.00 | 0.00 | 70 | 848.9 |
| 20260506060610 | 8 | 190 | 20.9 | 29.0 | 0.00 | 0.00 | 0.00 | 70 | 848.9 |
| 20260506060511 | 8 | 191 | 20.9 | 29.0 | 0.00 | 0.00 | 0.00 | 70 | 848.9 |
| 20260506060311 | 8 | 186 | 20.9 | 33.8 | 0.00 | 0.00 | 0.00 | 70 | 848.9 |
| 20260506060107 | 8 | 193 | 22.5 | 33.8 | 0.00 | 0.00 | 0.00 | 70 | 848.8 |
| 20260506051257 | 8 | 181 | 25.7 | 41.8 | 0.00 | 0.00 | 0.00 | 70 | 848.4 |
| 20260506051052 | 8 | 180 | 22.5 | 32.2 | 0.00 | 0.00 | 0.00 | 70 | 848.4 |
| 20260506050852 | 8 | 183 | 24.1 | 38.6 | 0.00 | 0.00 | 0.00 | 70 | 848.4 |
| 20260506050653 | 8 | 183 | 24.1 | 40.2 | 0.00 | 0.00 | 0.00 | 70 | 848.4 |
| 20260506050552 | 8 | 183 | 24.1 | 40.2 | 0.00 | 0.00 | 0.00 | 70 | 848.3 |
| 20260506050452 | 8 | 184 | 22.5 | 35.4 | 0.00 | 0.00 | 0.00 | 70 | 848.3 |
| 20260506050253 | 8 | 183 | 27.4 | 41.8 | 0.00 | 0.00 | 0.00 | 70 | 848.2 |
| 20260506045045 | 7 | 183 | 22.5 | 37.0 | 0.00 | 0.00 | 0.00 | 71 | 848.0 |
| 20260506044846 | 7 | 184 | 24.1 | 37.0 | 0.00 | 0.00 | 0.00 | 72 | 848.0 |
| 20260506044646 | 6 | 174 | 19.3 | 33.8 | 0.00 | 0.00 | 0.00 | 72 | 848.3 |
| 20260506044545 | 6 | 175 | 17.7 | 27.4 | 0.00 | 0.00 | 0.00 | 72 | 848.5 |
| 20260506044445 | 6 | 178 | 17.7 | 27.4 | 0.00 | 0.00 | 0.00 | 72 | 848.5 |
| 20260506044246 | 6 | 179 | 19.3 | 35.4 | 0.00 | 0.00 | 0.00 | 72 | 848.5 |
| 20260506044042 | 6 | 165 | 17.7 | 29.0 | 0.00 | 0.00 | 0.00 | 72 | 848.6 |
| 20260506043843 | 6 | 171 | 19.3 | 30.6 | 0.00 | 0.00 | 0.00 | 72 | 848.6 |
| 20260506043542 | 6 | 167 | 16.1 | 27.4 | 0.00 | 0.00 | 0.00 | 72 | 848.6 |
| 20260506043444 | 6 | 163 | 16.1 | 27.4 | 0.00 | 0.00 | 0.00 | 72 | 848.5 |
| 20260506043243 | 6 | 158 | 16.1 | 27.4 | 0.00 | 0.00 | 0.00 | 72 | 848.5 |
| 20260506043039 | 6 | 154 | 17.7 | 25.7 | 0.00 | 0.00 | 0.00 | 72 | 848.5 |
| 20260506042641 | 6 | 159 | 17.7 | 32.2 | 0.00 | 0.00 | 0.00 | 71 | 848.5 |
| 20260506042539 | 6 | 159 | 17.7 | 32.2 | 0.00 | 0.00 | 0.00 | 71 | 848.4 |
| 20260506042440 | 6 | 167 | 16.1 | 25.7 | 0.00 | 0.00 | 0.00 | 71 | 848.4 |
| 20260506042240 | 6 | 173 | 16.1 | 27.4 | 0.00 | 0.00 | 0.00 | 71 | 848.3 |
| 20260506042036 | 6 | 169 | 16.1 | 25.7 | 0.00 | 0.00 | 0.00 | 71 | 848.3 |
| 20260506041838 | 6 | 172 | 16.1 | 25.7 | 0.00 | 0.00 | 0.00 | 72 | 848.2 |
| 20260506041637 | 6 | 179 | 14.5 | 24.1 | 0.00 | 0.00 | 0.00 | 72 | 848.2 |
| 20260506041535 | 6 | 177 | 14.5 | 24.1 | 0.00 | 0.00 | 0.00 | 72 | 848.2 |
| 20260506041437 | 6 | 177 | 14.5 | 24.1 | 0.00 | 0.00 | 0.00 | 72 | 848.2 |
| 20260506041237 | 6 | 174 | 16.1 | 29.0 | 0.00 | 0.00 | 0.00 | 72 | 848.1 |
| 20260506041020 | 6 | 177 | 16.1 | 29.0 | 0.00 | 0.00 | 0.00 | 72 | 848.1 |
| 20260506040821 | 6 | 175 | 17.7 | 25.7 | 0.00 | 0.00 | 0.00 | 73 | 848.1 |
| 20260506040520 | 6 | 178 | 20.9 | 37.0 | 0.00 | 0.00 | 0.00 | 72 | 848.4 |
| 20260506040420 | 6 | 180 | 20.9 | 37.0 | 0.00 | 0.00 | 0.00 | 72 | 848.5 |
| 20260506040220 | 6 | 183 | 19.3 | 32.2 | 0.00 | 0.00 | 0.00 | 72 | 848.6 |
| 20260506040016 | 6 | 178 | 17.7 | 24.1 | 0.00 | 0.00 | 0.00 | 72 | 848.6 |
| 20260506035817 | 6 | 182 | 16.1 | 27.4 | 0.00 | 0.00 | 0.00 | 72 | 848.6 |
| 20260506035618 | 6 | 187 | 17.7 | 27.4 | 0.00 | 0.00 | 0.00 | 72 | 848.6 |
| 20260506035516 | 6 | 185 | 17.7 | 27.4 | 0.00 | 0.00 | 0.00 | 72 | 848.5 |
| 20260506035416 | 6 | 185 | 17.7 | 27.4 | 0.00 | 0.00 | 0.00 | 72 | 848.5 |
| 20260506035217 | 6 | 181 | 17.7 | 32.2 | 0.00 | 0.00 | 0.00 | 72 | 848.5 |
| 20260506035013 | 6 | 181 | 19.3 | 32.2 | 0.00 | 0.00 | 0.00 | 72 | 848.5 |
| 20260506034814 | 6 | 189 | 19.3 | 32.2 | 0.00 | 0.00 | 0.00 | 72 | 848.5 |
| 20260506034613 | 6 | 189 | 17.7 | 24.1 | 0.00 | 0.00 | 0.00 | 72 | 848.5 |
| 20260506034513 | 6 | 182 | 17.7 | 24.1 | 0.00 | 0.00 | 0.00 | 72 | 848.5 |
| 20260506034413 | 6 | 182 | 16.1 | 24.1 | 0.00 | 0.00 | 0.00 | 72 | 848.5 |
| 20260506034213 | 6 | 178 | 17.7 | 25.7 | 0.00 | 0.00 | 0.00 | 72 | 848.5 |
| 20260506034010 | 6 | 176 | 16.1 | 32.2 | 0.00 | 0.00 | 0.00 | 71 | 848.5 |
| 20260506033613 | 6 | 177 | 19.3 | 35.4 | 0.00 | 0.00 | 0.00 | 71 | 848.5 |
| 20260506033510 | 6 | 179 | 19.3 | 35.4 | 0.00 | 0.00 | 0.00 | 71 | 848.5 |
| 20260506033413 | 6 | 182 | 17.7 | 29.0 | 0.00 | 0.00 | 0.00 | 71 | 848.5 |
| 20260506033213 | 6 | 176 | 16.1 | 24.1 | 0.00 | 0.00 | 0.00 | 71 | 848.5 |
| 20260506033007 | 6 | 178 | 16.1 | 30.6 | 0.00 | 0.00 | 0.00 | 71 | 848.4 |
| 20260506032808 | 6 | 173 | 16.1 | 24.1 | 0.00 | 0.00 | 0.00 | 71 | 848.4 |
| 20260506032608 | 6 | 167 | 14.5 | 27.4 | 0.00 | 0.00 | 0.00 | 71 | 848.4 |
| 20260506032507 | 6 | 175 | 12.9 | 27.4 | 0.00 | 0.00 | 0.00 | 71 | 848.4 |
| 20260506032408 | 6 | 173 | 12.9 | 27.4 | 0.00 | 0.00 | 0.00 | 71 | 848.4 |
| 20260506032004 | 6 | 178 | 17.7 | 35.4 | 0.00 | 0.00 | 0.00 | 71 | 848.4 |
| 20260506031805 | 6 | 180 | 19.3 | 32.2 | 0.00 | 0.00 | 0.00 | 71 | 848.5 |
| 20260506031605 | 6 | 184 | 19.3 | 32.2 | 0.00 | 0.00 | 0.00 | 71 | 848.5 |
| 20260506031504 | 6 | 176 | 17.7 | 24.1 | 0.00 | 0.00 | 0.00 | 71 | 848.5 |
| 20260506031406 | 6 | 177 | 19.3 | 35.4 | 0.00 | 0.00 | 0.00 | 71 | 848.5 |
| 20260506031204 | 6 | 183 | 20.9 | 35.4 | 0.00 | 0.00 | 0.00 | 71 | 848.5 |
| 20260506031001 | 6 | 183 | 19.3 | 29.0 | 0.00 | 0.00 | 0.00 | 71 | 848.4 |
| 20260506030804 | 6 | 183 | 17.7 | 24.1 | 0.00 | 0.00 | 0.00 | 71 | 848.4 |
| 20260506030501 | 6 | 185 | 20.9 | 35.4 | 0.00 | 0.00 | 0.00 | 71 | 848.4 |
| 20260506030401 | 6 | 185 | 19.3 | 35.4 | 0.00 | 0.00 | 0.00 | 71 | 848.4 |
| 20260506030201 | 6 | 185 | 12.9 | 25.7 | 0.00 | 0.00 | 0.00 | 70 | 848.3 |
| 20260506025957 | 6 | 194 | 16.1 | 22.5 | 0.00 | 0.00 | 0.00 | 70 | 848.3 |
| 20260506025759 | 6 | 187 | 17.7 | 27.4 | 0.00 | 0.00 | 0.00 | 70 | 848.2 |
| 20260506025559 | 6 | 187 | 19.3 | 33.8 | 0.00 | 0.00 | 0.00 | 70 | 848.2 |
| 20260506025457 | 6 | 185 | 20.9 | 38.6 | 0.00 | 0.00 | 0.00 | 70 | 848.2 |
| 20260506025359 | 6 | 182 | 17.7 | 38.6 | 0.00 | 0.00 | 0.00 | 70 | 848.3 |
| 20260506024955 | 6 | 177 | 17.7 | 33.8 | 0.00 | 0.00 | 0.00 | 70 | 848.2 |
| 20260506024755 | 6 | 175 | 20.9 | 35.4 | 0.00 | 0.00 | 0.00 | 70 | 848.2 |
| 20260506024555 | 6 | 181 | 22.5 | 37.0 | 0.00 | 0.00 | 0.00 | 70 | 848.1 |
| 20260506024455 | 6 | 177 | 20.9 | 37.0 | 0.00 | 0.00 | 0.00 | 70 | 848.1 |
| 20260506023952 | 6 | 180 | 17.7 | 30.6 | 0.00 | 0.00 | 0.00 | 70 | 848.1 |
| 20260506023753 | 6 | 175 | 19.3 | 25.7 | 0.00 | 0.00 | 0.00 | 70 | 848.1 |
| 20260506023452 | 6 | 177 | 16.1 | 25.7 | 0.00 | 0.00 | 0.00 | 70 | 848.0 |
| 20260506023353 | 6 | 177 | 16.1 | 25.7 | 0.00 | 0.00 | 0.00 | 70 | 848.0 |
| 20260506023153 | 6 | 166 | 16.1 | 25.7 | 0.00 | 0.00 | 0.00 | 70 | 848.0 |
| 20260506022949 | 6 | 180 | 17.7 | 27.4 | 0.00 | 0.00 | 0.00 | 69 | 848.0 |
| 20260506022751 | 6 | 172 | 20.9 | 35.4 | 0.00 | 0.00 | 0.00 | 69 | 848.0 |
| 20260506022549 | 6 | 166 | 17.7 | 25.7 | 0.00 | 0.00 | 0.00 | 69 | 848.1 |
| 20260506022448 | 6 | 170 | 16.1 | 22.5 | 0.00 | 0.00 | 0.00 | 69 | 848.1 |
| 20260506022349 | 6 | 174 | 16.1 | 24.1 | 0.00 | 0.00 | 0.00 | 69 | 848.1 |
| 20260506021945 | 6 | 160 | 16.1 | 24.1 | 0.00 | 0.00 | 0.00 | 69 | 848.1 |
| 20260506021747 | 6 | 166 | 17.7 | 38.6 | 0.00 | 0.00 | 0.00 | 69 | 848.1 |
| 20260506021546 | 6 | 172 | 16.1 | 30.6 | 0.00 | 0.00 | 0.00 | 69 | 848.1 |
| 20260506021445 | 6 | 173 | 16.1 | 25.7 | 0.00 | 0.00 | 0.00 | 69 | 848.1 |
| 20260506021347 | 6 | 175 | 16.1 | 25.7 | 0.00 | 0.00 | 0.00 | 69 | 848.1 |
| 20260506021146 | 6 | 163 | 17.7 | 29.0 | 0.00 | 0.00 | 0.00 | 69 | 848.1 |
| 20260506020942 | 6 | 164 | 17.7 | 27.4 | 0.00 | 0.00 | 0.00 | 69 | 848.1 |
| 20260506020743 | 6 | 167 | 16.1 | 29.0 | 0.00 | 0.00 | 0.00 | 69 | 848.1 |
| 20260506020442 | 6 | 162 | 17.7 | 30.6 | 0.00 | 0.00 | 0.00 | 68 | 848.2 |
| 20260506020343 | 6 | 164 | 19.3 | 30.6 | 0.00 | 0.00 | 0.00 | 68 | 848.2 |
| 20260506015939 | 6 | 167 | 17.7 | 25.7 | 0.00 | 0.00 | 0.00 | 68 | 848.2 |
| 20260506015740 | 6 | 162 | 16.1 | 25.7 | 0.00 | 0.00 | 0.00 | 68 | 848.2 |
| 20260506015540 | 6 | 164 | 16.1 | 38.6 | 0.00 | 0.00 | 0.00 | 68 | 848.3 |
| 20260506015439 | 6 | 167 | 16.1 | 38.6 | 0.00 | 0.00 | 0.00 | 68 | 848.3 |
| 20260506015340 | 6 | 171 | 14.5 | 38.6 | 0.00 | 0.00 | 0.00 | 68 | 848.3 |
| 20260506015139 | 6 | 167 | 14.5 | 25.7 | 0.00 | 0.00 | 0.00 | 68 | 848.3 |
| 20260506014936 | 6 | 175 | 14.5 | 25.7 | 0.00 | 0.00 | 0.00 | 68 | 848.3 |
| 20260506014737 | 6 | 177 | 16.1 | 25.7 | 0.00 | 0.00 | 0.00 | 68 | 848.3 |
| 20260506014537 | 6 | 169 | 14.5 | 22.5 | 0.00 | 0.00 | 0.00 | 68 | 848.3 |
| 20260506014436 | 6 | 170 | 14.5 | 22.5 | 0.00 | 0.00 | 0.00 | 67 | 848.3 |
| 20260506013933 | 6 | 154 | 14.5 | 25.7 | 0.00 | 0.00 | 0.00 | 67 | 848.2 |
| 20260506013734 | 6 | 167 | 14.5 | 25.7 | 0.00 | 0.00 | 0.00 | 67 | 848.3 |
| 20260506013534 | 6 | 168 | 14.5 | 24.1 | 0.00 | 0.00 | 0.00 | 67 | 848.3 |
| 20260506013420 | 6 | 168 | 16.1 | 24.1 | 0.00 | 0.00 | 0.00 | 67 | 848.3 |
| 20260506013325 | 6 | 167 | 17.7 | 27.4 | 0.00 | 0.00 | 0.00 | 67 | 848.4 |
| 20260506013123 | 6 | 171 | 17.7 | 30.6 | 0.00 | 0.00 | 0.00 | 67 | 848.4 |
| 20260506012917 | 7 | 176 | 16.1 | 30.6 | 0.00 | 0.00 | 0.00 | 67 | 848.4 |
| 20260506012719 | 7 | 177 | 16.1 | 29.0 | 0.00 | 0.00 | 0.00 | 67 | 848.5 |
| 20260506012519 | 7 | 173 | 17.7 | 37.0 | 0.00 | 0.00 | 0.00 | 67 | 848.4 |
| 20260506012419 | 7 | 173 | 16.1 | 37.0 | 0.00 | 0.00 | 0.00 | 67 | 848.4 |
| 20260506012417 | 7 | 173 | 16.1 | 37.0 | 0.00 | 0.00 | 0.00 | 66 | 848.4 |
| 20260506012319 | 7 | 175 | 12.9 | 25.7 | 0.00 | 0.00 | 0.00 | 66 | 848.4 |
| 20260506012119 | 7 | 173 | 16.1 | 25.7 | 0.00 | 0.00 | 0.00 | 66 | 848.5 |
| 20260506011911 | 7 | 171 | 17.7 | 29.0 | 0.00 | 0.00 | 0.00 | 66 | 848.4 |
| 20260506011710 | 7 | 176 | 20.9 | 38.6 | 0.00 | 0.00 | 0.00 | 66 | 848.3 |
| 20260506011408 | 7 | 185 | 20.9 | 32.2 | 0.00 | 0.00 | 0.00 | 67 | 848.2 |
| 20260506011310 | 7 | 181 | 19.3 | 32.2 | 0.00 | 0.00 | 0.00 | 66 | 848.2 |
| 20260506011110 | 7 | 180 | 19.3 | 35.4 | 0.00 | 0.00 | 0.00 | 66 | 848.2 |
| 20260506010906 | 7 | 179 | 22.5 | 33.8 | 0.00 | 0.00 | 0.00 | 66 | 848.2 |
| 20260506010709 | 7 | 178 | 19.3 | 32.2 | 0.00 | 0.00 | 0.00 | 66 | 848.2 |
| 20260506010509 | 7 | 175 | 16.1 | 25.7 | 0.00 | 0.00 | 0.00 | 65 | 848.2 |
| 20260506010406 | 7 | 179 | 16.1 | 27.4 | 0.00 | 0.00 | 0.00 | 65 | 848.2 |
| 20260506010110 | 7 | 178 | 22.5 | 35.4 | 0.00 | 0.00 | 0.00 | 65 | 848.2 |
| 20260506005900 | 7 | 185 | 22.5 | 43.5 | 0.00 | 0.00 | 0.00 | 65 | 848.1 |
| 20260506005702 | 7 | 194 | 22.5 | 43.5 | 0.00 | 0.00 | 0.00 | 65 | 848.1 |
| 20260506005502 | 7 | 183 | 20.9 | 30.6 | 0.00 | 0.00 | 0.00 | 65 | 848.0 |
| 20260506005400 | 7 | 182 | 20.9 | 29.0 | 0.00 | 0.00 | 0.00 | 64 | 848.0 |
| 20260506005301 | 7 | 184 | 20.9 | 30.6 | 0.00 | 0.00 | 0.00 | 64 | 848.0 |
| 20260506005100 | 7 | 180 | 20.9 | 30.6 | 0.00 | 0.00 | 0.00 | 64 | 848.0 |
| 20260506004857 | 7 | 178 | 17.7 | 29.0 | 0.00 | 0.00 | 0.00 | 64 | 848.0 |
| 20260506004658 | 7 | 174 | 22.5 | 49.9 | 0.00 | 0.00 | 0.00 | 64 | 848.0 |
| 20260506004458 | 7 | 172 | 20.9 | 41.8 | 0.00 | 0.00 | 0.00 | 64 | 848.0 |
| 20260506004357 | 7 | 174 | 19.3 | 33.8 | 0.00 | 0.00 | 0.00 | 64 | 848.0 |
| 20260506004257 | 7 | 179 | 19.3 | 29.0 | 0.00 | 0.00 | 0.00 | 64 | 848.0 |
| 20260506004057 | 7 | 180 | 22.5 | 30.6 | 0.00 | 0.00 | 0.00 | 64 | 847.9 |
| 20260506003854 | 7 | 178 | 25.7 | 48.3 | 0.00 | 0.00 | 0.00 | 64 | 847.9 |
| 20260506003655 | 7 | 181 | 24.1 | 48.3 | 0.00 | 0.00 | 0.00 | 64 | 847.8 |
| 20260506003455 | 7 | 180 | 24.1 | 40.2 | 0.00 | 0.00 | 0.00 | 64 | 847.7 |
| 20260506003354 | 7 | 178 | 24.1 | 40.2 | 0.00 | 0.00 | 0.00 | 64 | 847.7 |
| 20260506003255 | 7 | 177 | 22.5 | 37.0 | 0.00 | 0.00 | 0.00 | 64 | 847.8 |
| 20260506003055 | 7 | 172 | 20.9 | 37.0 | 0.00 | 0.00 | 0.00 | 64 | 847.8 |
| 20260506002851 | 7 | 179 | 24.1 | 40.2 | 0.00 | 0.00 | 0.00 | 64 | 847.8 |
| 20260506002652 | 7 | 177 | 25.7 | 40.2 | 0.00 | 0.00 | 0.00 | 64 | 847.9 |
| 20260506002453 | 7 | 174 | 24.1 | 40.2 | 0.00 | 0.00 | 0.00 | 63 | 847.9 |
| 20260506002351 | 7 | 179 | 22.5 | 32.2 | 0.00 | 0.00 | 0.00 | 63 | 847.9 |
| 20260506002251 | 7 | 183 | 22.5 | 32.2 | 0.00 | 0.00 | 0.00 | 63 | 847.9 |
| 20260506002051 | 7 | 177 | 24.1 | 53.1 | 0.00 | 0.00 | 0.00 | 63 | 847.9 |
| 20260506001848 | 7 | 178 | 20.9 | 37.0 | 0.00 | 0.00 | 0.00 | 63 | 847.9 |
| 20260506001649 | 7 | 176 | 22.5 | 32.2 | 0.00 | 0.00 | 0.00 | 63 | 847.9 |
| 20260506001448 | 7 | 182 | 20.9 | 32.2 | 0.00 | 0.00 | 0.00 | 63 | 847.8 |
| 20260506001347 | 7 | 178 | 19.3 | 29.0 | 0.00 | 0.00 | 0.00 | 63 | 847.8 |
| 20260506001246 | 7 | 171 | 20.9 | 35.4 | 0.00 | 0.00 | 0.00 | 63 | 847.8 |
| 20260506001046 | 7 | 174 | 20.9 | 35.4 | 0.00 | 0.00 | 0.00 | 63 | 847.9 |
| 20260506000842 | 7 | 170 | 20.9 | 41.8 | 0.00 | 0.00 | 0.00 | 63 | 847.9 |
| 20260506000644 | 7 | 174 | 22.5 | 41.8 | 0.00 | 0.00 | 0.00 | 63 | 847.9 |
| 20260506000445 | 7 | 176 | 24.1 | 38.6 | 0.00 | 0.00 | 0.00 | 63 | 847.9 |
| 20260506000342 | 7 | 172 | 24.1 | 40.2 | 0.00 | 0.00 | 0.00 | 63 | 847.9 |
| 20260506000243 | 7 | 180 | 22.5 | 40.2 | 0.00 | 0.00 | 0.00 | 63 | 847.9 |
| 20260506000043 | 7 | 182 | 24.1 | 40.2 | 0.00 | 0.00 | 0.00 | 63 | 848.0 |
| 20260505235839 | 7 | 176 | 22.5 | 40.2 | 0.00 | 0.00 | 0.00 | 63 | 848.1 |
| 20260505235640 | 7 | 173 | 24.1 | 45.1 | 0.00 | 0.00 | 0.00 | 63 | 848.1 |
| 20260505235440 | 7 | 169 | 25.7 | 40.2 | 0.00 | 0.00 | 0.00 | 63 | 848.1 |
| 20260505235339 | 7 | 172 | 22.5 | 40.2 | 0.00 | 0.00 | 0.00 | 63 | 848.2 |
| 20260505235240 | 7 | 172 | 19.3 | 40.2 | 0.00 | 0.00 | 0.00 | 63 | 848.2 |
| 20260505235040 | 7 | 171 | 20.9 | 32.2 | 0.00 | 0.00 | 0.00 | 63 | 848.2 |
| 20260505234836 | 7 | 178 | 24.1 | 38.6 | 0.00 | 0.00 | 0.00 | 63 | 848.3 |
| 20260505234438 | 7 | 174 | 22.5 | 41.8 | 0.00 | 0.00 | 0.00 | 63 | 848.3 |
| 20260505234336 | 7 | 171 | 20.9 | 41.8 | 0.00 | 0.00 | 0.00 | 63 | 848.3 |
| 20260505234238 | 7 | 178 | 20.9 | 41.8 | 0.00 | 0.00 | 0.00 | 63 | 848.3 |
| 20260505234037 | 8 | 184 | 20.9 | 33.8 | 0.00 | 0.00 | 0.00 | 63 | 848.2 |
| 20260505233833 | 8 | 179 | 22.5 | 45.1 | 0.00 | 0.00 | 0.00 | 62 | 848.1 |
| 20260505233434 | 8 | 175 | 22.5 | 35.4 | 0.00 | 0.00 | 0.00 | 63 | 848.1 |
| 20260505233333 | 8 | 173 | 22.5 | 41.8 | 0.00 | 0.00 | 0.00 | 63 | 848.1 |
| 20260505233234 | 8 | 173 | 24.1 | 41.8 | 0.00 | 0.00 | 0.00 | 63 | 848.1 |
| 20260505233034 | 8 | 178 | 25.7 | 51.5 | 0.00 | 0.00 | 0.00 | 62 | 848.1 |
| 20260505232830 | 7 | 186 | 25.7 | 51.5 | 0.00 | 0.00 | 0.00 | 62 | 848.1 |
| 20260505232432 | 7 | 178 | 24.1 | 48.3 | 0.00 | 0.00 | 0.00 | 63 | 848.2 |
| 20260505232331 | 7 | 182 | 24.1 | 48.3 | 0.00 | 0.00 | 0.00 | 63 | 848.2 |
| 20260505232231 | 7 | 183 | 22.5 | 40.2 | 0.00 | 0.00 | 0.00 | 62 | 848.2 |
| 20260505232030 | 7 | 172 | 24.1 | 43.5 | 0.00 | 0.00 | 0.00 | 63 | 848.3 |
| 20260505231827 | 7 | 174 | 22.5 | 43.5 | 0.00 | 0.00 | 0.00 | 63 | 848.2 |
| 20260505231428 | 7 | 174 | 25.7 | 40.2 | 0.00 | 0.00 | 0.00 | 63 | 848.3 |
| 20260505231327 | 7 | 176 | 24.1 | 40.2 | 0.00 | 0.00 | 0.00 | 63 | 848.4 |
| 20260505231228 | 7 | 183 | 24.1 | 40.2 | 0.00 | 0.00 | 0.00 | 63 | 848.4 |
| 20260505231028 | 7 | 172 | 20.9 | 30.6 | 0.00 | 0.00 | 0.00 | 62 | 848.5 |
| 20260505230823 | 7 | 168 | 22.5 | 30.6 | 0.00 | 0.00 | 0.00 | 62 | 848.5 |
| 20260505230625 | 7 | 180 | 20.9 | 32.2 | 0.00 | 0.00 | 0.00 | 62 | 848.5 |
| 20260505230425 | 7 | 165 | 19.3 | 32.2 | 0.00 | 0.00 | 0.00 | 62 | 848.6 |
| 20260505230323 | 7 | 161 | 17.7 | 29.0 | 0.00 | 0.00 | 0.00 | 62 | 848.6 |
| 20260505230225 | 7 | 164 | 16.1 | 29.0 | 0.00 | 0.00 | 0.00 | 62 | 848.6 |
| 20260505230025 | 7 | 174 | 17.7 | 29.0 | 0.00 | 0.00 | 0.00 | 62 | 848.6 |
| 20260505225807 | 7 | 171 | 22.5 | 35.4 | 0.00 | 0.00 | 0.00 | 62 | 848.6 |
| 20260505225609 | 7 | 178 | 24.1 | 33.8 | 0.00 | 0.00 | 0.00 | 62 | 848.7 |
| 20260505225409 | 7 | 176 | 22.5 | 37.0 | 0.00 | 0.00 | 0.00 | 62 | 848.7 |
| 20260505225307 | 7 | 175 | 24.1 | 37.0 | 0.00 | 0.00 | 0.00 | 62 | 848.7 |
| 20260505225208 | 7 | 174 | 24.1 | 38.6 | 0.00 | 0.00 | 0.00 | 62 | 848.7 |
| 20260505225008 | 7 | 175 | 22.5 | 38.6 | 0.00 | 0.00 | 0.00 | 62 | 848.7 |
| 20260505224804 | 7 | 175 | 20.9 | 30.6 | 0.00 | 0.00 | 0.00 | 62 | 848.7 |
| 20260505224605 | 7 | 181 | 20.9 | 40.2 | 0.00 | 0.00 | 0.00 | 62 | 848.8 |
| 20260505224405 | 7 | 182 | 22.5 | 40.2 | 0.00 | 0.00 | 0.00 | 62 | 848.9 |
| 20260505224304 | 7 | 180 | 24.1 | 40.2 | 0.00 | 0.00 | 0.00 | 62 | 848.9 |
| 20260505224205 | 7 | 177 | 22.5 | 40.2 | 0.00 | 0.00 | 0.00 | 62 | 848.9 |
| 20260505224005 | 7 | 172 | 19.3 | 30.6 | 0.00 | 0.00 | 0.00 | 62 | 848.9 |
| 20260505223801 | 7 | 169 | 19.3 | 35.4 | 0.00 | 0.00 | 0.00 | 62 | 848.9 |
| 20260505223603 | 7 | 176 | 20.9 | 30.6 | 0.00 | 0.00 | 0.00 | 62 | 848.9 |
| 20260505223403 | 7 | 179 | 24.1 | 51.5 | 0.00 | 0.00 | 0.00 | 62 | 848.9 |
| 20260505223301 | 7 | 180 | 24.1 | 51.5 | 0.00 | 0.00 | 0.00 | 62 | 848.9 |
| 20260505223002 | 8 | 178 | 20.9 | 32.2 | 0.00 | 0.00 | 0.00 | 62 | 849.0 |
| 20260505222759 | 8 | 177 | 19.3 | 30.6 | 0.00 | 0.00 | 0.00 | 62 | 849.0 |
| 20260505222559 | 8 | 172 | 19.3 | 30.6 | 0.00 | 0.00 | 0.00 | 62 | 849.0 |
| 20260505222400 | 8 | 172 | 19.3 | 29.0 | 0.00 | 0.00 | 0.00 | 62 | 849.0 |
| 20260505222259 | 8 | 169 | 19.3 | 30.6 | 0.00 | 0.00 | 0.00 | 62 | 849.0 |
| 20260505222200 | 8 | 172 | 19.3 | 30.6 | 0.00 | 0.00 | 0.00 | 62 | 849.0 |
| 20260505221959 | 8 | 174 | 22.5 | 41.8 | 0.00 | 0.00 | 0.00 | 62 | 849.0 |
| 20260505221756 | 8 | 170 | 22.5 | 41.8 | 0.00 | 0.00 | 0.00 | 62 | 849.0 |
| 20260505221558 | 8 | 167 | 20.9 | 35.4 | 0.00 | 0.00 | 0.00 | 62 | 849.0 |
| 20260505221358 | 8 | 170 | 22.5 | 35.4 | 0.00 | 0.00 | 0.00 | 62 | 849.0 |
| 20260505221256 | 8 | 176 | 20.9 | 32.2 | 0.00 | 0.00 | 0.00 | 62 | 849.1 |
| 20260505221157 | 8 | 174 | 20.9 | 32.2 | 0.00 | 0.00 | 0.00 | 62 | 849.1 |
| 20260505220956 | 8 | 171 | 17.7 | 32.2 | 0.00 | 0.00 | 0.00 | 62 | 849.1 |
| 20260505220753 | 8 | 171 | 19.3 | 38.6 | 0.00 | 0.00 | 0.00 | 62 | 849.1 |
| 20260505220554 | 8 | 172 | 20.9 | 38.6 | 0.00 | 0.00 | 0.00 | 62 | 849.2 |
| 20260505220353 | 7 | 177 | 19.3 | 38.6 | 0.00 | 0.00 | 0.00 | 62 | 849.3 |
| 20260505220253 | 7 | 178 | 19.3 | 38.6 | 0.00 | 0.00 | 0.00 | 62 | 849.3 |
| 20260505220150 | 7 | 176 | 17.7 | 30.6 | 0.00 | 0.00 | 0.00 | 62 | 849.3 |
| 20260505215950 | 7 | 176 | 16.1 | 35.4 | 0.00 | 0.00 | 0.00 | 62 | 849.3 |
| 20260505215746 | 7 | 172 | 14.5 | 24.1 | 0.00 | 0.00 | 0.00 | 62 | 849.4 |
| 20260505215548 | 7 | 168 | 14.5 | 19.3 | 0.00 | 0.00 | 0.00 | 62 | 849.4 |
| 20260505215348 | 7 | 167 | 14.5 | 25.7 | 0.00 | 0.00 | 0.00 | 62 | 849.4 |
| 20260505215246 | 7 | 173 | 14.5 | 25.7 | 0.00 | 0.00 | 0.00 | 62 | 849.5 |
| 20260505215148 | 7 | 172 | 16.1 | 25.7 | 0.00 | 0.00 | 0.00 | 62 | 849.5 |
| 20260505214948 | 7 | 168 | 14.5 | 20.9 | 0.00 | 0.00 | 0.00 | 62 | 849.5 |
| 20260505214744 | 8 | 171 | 12.9 | 24.1 | 0.00 | 0.00 | 0.00 | 61 | 849.5 |
| 20260505214545 | 8 | 169 | 12.9 | 24.1 | 0.00 | 0.00 | 0.00 | 61 | 849.5 |
| 20260505214345 | 8 | 166 | 12.9 | 22.5 | 0.00 | 0.00 | 0.00 | 61 | 849.5 |
| 20260505214244 | 8 | 175 | 12.9 | 17.7 | 0.00 | 0.00 | 0.00 | 61 | 849.5 |
| 20260505214145 | 8 | 173 | 12.9 | 19.3 | 0.00 | 0.00 | 0.00 | 61 | 849.5 |
| 20260505213944 | 8 | 170 | 12.9 | 24.1 | 0.00 | 0.00 | 0.00 | 61 | 849.5 |
| 20260505213741 | 8 | 171 | 12.9 | 22.5 | 0.00 | 0.00 | 0.00 | 61 | 849.4 |
| 20260505213542 | 8 | 180 | 14.5 | 25.7 | 0.00 | 0.00 | 0.00 | 61 | 849.4 |
| 20260505213341 | 8 | 175 | 12.9 | 20.9 | 0.00 | 0.00 | 0.00 | 61 | 849.6 |
| 20260505213241 | 8 | 177 | 12.9 | 27.4 | 0.00 | 0.00 | 0.00 | 61 | 849.6 |
| 20260505213141 | 8 | 180 | 14.5 | 38.6 | 0.00 | 0.00 | 0.00 | 61 | 849.6 |
| 20260505212941 | 8 | 177 | 14.5 | 38.6 | 0.00 | 0.00 | 0.00 | 61 | 849.8 |
| 20260505212738 | 8 | 178 | 12.9 | 19.3 | 0.00 | 0.00 | 0.00 | 61 | 850.0 |
| 20260505212539 | 8 | 170 | 12.9 | 20.9 | 0.00 | 0.00 | 0.00 | 61 | 850.1 |
| 20260505212338 | 8 | 173 | 16.1 | 33.8 | 0.00 | 0.00 | 0.00 | 61 | 850.2 |
| 20260505212238 | 8 | 172 | 16.1 | 33.8 | 0.00 | 0.00 | 0.00 | 61 | 850.2 |
| 20260505212138 | 8 | 171 | 14.5 | 33.8 | 0.00 | 0.00 | 0.00 | 61 | 850.2 |
| 20260505211938 | 8 | 174 | 11.3 | 24.1 | 0.00 | 0.00 | 0.00 | 61 | 850.2 |
| 20260505211734 | 8 | 177 | 14.5 | 20.9 | 0.00 | 0.00 | 0.00 | 61 | 850.1 |
| 20260505211535 | 8 | 173 | 14.5 | 25.7 | 0.00 | 0.00 | 0.00 | 60 | 850.2 |
| 20260505211335 | 8 | 160 | 14.5 | 25.7 | 0.00 | 0.00 | 0.00 | 60 | 850.2 |
| 20260505211234 | 8 | 161 | 14.5 | 25.7 | 0.00 | 0.00 | 0.00 | 60 | 850.2 |
| 20260505211135 | 8 | 162 | 14.5 | 25.7 | 0.00 | 0.00 | 0.00 | 60 | 850.2 |
| 20260505210934 | 8 | 162 | 12.9 | 19.3 | 0.00 | 0.00 | 0.00 | 60 | 850.3 |
| 20260505210731 | 8 | 170 | 14.5 | 29.0 | 0.00 | 0.00 | 0.00 | 60 | 850.2 |
| 20260505210532 | 8 | 173 | 12.9 | 29.0 | 0.00 | 0.00 | 0.00 | 60 | 850.3 |
| 20260505210332 | 8 | 180 | 11.3 | 22.5 | 0.00 | 0.00 | 0.00 | 60 | 850.3 |
| 20260505210231 | 8 | 185 | 12.9 | 22.5 | 0.00 | 0.00 | 0.00 | 60 | 850.3 |
| 20260505210131 | 8 | 182 | 12.9 | 22.5 | 0.00 | 0.00 | 0.00 | 60 | 850.3 |